Observation data for Throckmorton on 11/09/2019      Previous  Date       Current Mesonet Observations  Soil Data  Daily Summary Page  Observations in Plain Language
KTH1 090600Z 24003KT 05/03 A303 RMK A01 T00460033  RH  092%=      5-min Rain = 0
KTH1 090601Z 24003KT 05/03 A303 RMK A01 T00460033  RH  091%=      5-min Rain = 0
KTH1 090602Z 24003KT 05/03 A303 RMK A01 T00460033  RH  091%=      5-min Rain = 0
KTH1 090603Z 24003KT 05/03 A303 RMK A01 T00460033  RH  091%=      5-min Rain = 0
KTH1 090604Z 24003KT 05/03 A303 RMK A01 T00460033  RH  091%=      5-min Rain = 0
KTH1 090605Z 24003KT 05/03 A303 RMK A01 T00460033  RH  091%=      5-min Rain = 0
KTH1 090606Z 24003KT 05/03 A303 RMK A01 T00450032  RH  091%=      5-min Rain = 0
KTH1 090607Z 25003KT 05/03 A303 RMK A01 T00450031  RH  091%=      5-min Rain = 0
KTH1 090608Z 24003KT 04/03 A303 RMK A01 T00440031  RH  091%=      5-min Rain = 0
KTH1 090609Z 24003KT 04/03 A303 RMK A01 T00440031  RH  091%=      5-min Rain = 0
KTH1 090610Z 24003KT 04/03 A303 RMK A01 T00440031  RH  091%=      5-min Rain = 0
KTH1 090611Z 24003KT 04/03 A303 RMK A01 T00430031  RH  091%=      5-min Rain = 0
KTH1 090612Z 24003KT 04/03 A303 RMK A01 T00430031  RH  092%=      5-min Rain = 0
KTH1 090613Z 24003KT 04/03 A303 RMK A01 T00430031  RH  092%=      5-min Rain = 0
KTH1 090614Z 24003KT 04/03 A303 RMK A01 T00430031  RH  092%=      5-min Rain = 0
KTH1 090615Z 24003KT 04/03 A303 RMK A01 T00430030  RH  092%=      5-min Rain = 0
KTH1 090616Z 24003KT 04/03 A303 RMK A01 T00420030  RH  092%=      5-min Rain = 0
KTH1 090617Z 24002KT 04/03 A303 RMK A01 T00430030  RH  092%=      5-min Rain = 0
KTH1 090618Z 24002KT 04/03 A303 RMK A01 T00420030  RH  092%=      5-min Rain = 0
KTH1 090619Z 24002KT 04/03 A303 RMK A01 T00420030  RH  092%=      5-min Rain = 0
KTH1 090620Z 25002KT 04/03 A303 RMK A01 T00420030  RH  092%=      5-min Rain = 0
KTH1 090621Z 25002KT 04/03 A303 RMK A01 T00410030  RH  092%=      5-min Rain = 0
KTH1 090622Z 25002KT 04/03 A303 RMK A01 T00420031  RH  093%=      5-min Rain = 0
KTH1 090623Z 25002KT 04/03 A303 RMK A01 T00410031  RH  093%=      5-min Rain = 0
KTH1 090624Z 25002KT 04/03 A303 RMK A01 T00410031  RH  093%=      5-min Rain = 0
KTH1 090625Z 24003KT 04/03 A303 RMK A01 T00410031  RH  094%=      5-min Rain = 0
KTH1 090626Z 24003KT 04/03 A303 RMK A01 T00410032  RH  094%=      5-min Rain = 0
KTH1 090627Z 25003KT 04/03 A303 RMK A01 T00410032  RH  094%=      5-min Rain = 0
KTH1 090628Z 25003KT 04/03 A303 RMK A01 T00410032  RH  094%=      5-min Rain = 0
KTH1 090629Z 24003KT 04/03 A3029 RMK A01 T00410032  RH  094%=      5-min Rain = 0
KTH1 090630Z 24003KT 04/03 A3029 RMK A01 T00410032  RH  094%=      5-min Rain = 0
KTH1 090631Z 24003KT 04/03 A3029 RMK A01 T00410032  RH  094%=      5-min Rain = 0
KTH1 090632Z 23003KT 04/03 A3029 RMK A01 T00410031  RH  093%=      5-min Rain = 0
KTH1 090633Z 23004KT 04/03 A3029 RMK A01 T00410030  RH  093%=      5-min Rain = 0
KTH1 090634Z 23004KT 04/03 A3029 RMK A01 T00410029  RH  092%=      5-min Rain = 0
KTH1 090635Z 23003KT 04/03 A3029 RMK A01 T00410028  RH  091%=      5-min Rain = 0
KTH1 090636Z 23004KT 04/03 A3029 RMK A01 T00410028  RH  091%=      5-min Rain = 0
KTH1 090637Z 23004KT 04/03 A3029 RMK A01 T00410028  RH  091%=      5-min Rain = 0
KTH1 090638Z 23004KT 04/03 A3029 RMK A01 T00420028  RH  091%=      5-min Rain = 0
KTH1 090639Z 23004KT 04/03 A3029 RMK A01 T00420028  RH  091%=      5-min Rain = 0
KTH1 090640Z 23004KT 04/03 A3029 RMK A01 T00420028  RH  091%=      5-min Rain = 0
KTH1 090641Z 22004KT 04/03 A3029 RMK A01 T00420028  RH  091%=      5-min Rain = 0
KTH1 090642Z 22004KT 04/03 A3029 RMK A01 T00420028  RH  091%=      5-min Rain = 0
KTH1 090643Z 22004KT 04/03 A3029 RMK A01 T00420028  RH  091%=      5-min Rain = 0
KTH1 090644Z 22004KT 04/03 A3029 RMK A01 T00420028  RH  090%=      5-min Rain = 0
KTH1 090645Z 23004KT 04/03 A3029 RMK A01 T00430028  RH  090%=      5-min Rain = 0
KTH1 090646Z 24003KT 04/03 A3029 RMK A01 T00430028  RH  090%=      5-min Rain = 0
KTH1 090647Z 24003KT 04/03 A3029 RMK A01 T00430029  RH  090%=      5-min Rain = 0
KTH1 090648Z 24003KT 04/03 A3029 RMK A01 T00440029  RH  090%=      5-min Rain = 0
KTH1 090649Z 23003KT 04/03 A3029 RMK A01 T00440028  RH  090%=      5-min Rain = 0
KTH1 090650Z 23004KT 04/03 A3029 RMK A01 T00440028  RH  090%=      5-min Rain = 0
KTH1 090651Z 23004KT 04/03 A3029 RMK A01 T00440028  RH  090%=      5-min Rain = 0
KTH1 090652Z 23004KT 04/03 A3029 RMK A01 T00440028  RH  090%=      5-min Rain = 0
KTH1 090653Z 23004KT 04/03 A3029 RMK A01 T00440028  RH  090%=      5-min Rain = 0
KTH1 090654Z 23004KT 04/03 A3029 RMK A01 T00440028  RH  090%=      5-min Rain = 0
KTH1 090655Z 23004KT 04/03 A3029 RMK A01 T00430027  RH  090%=      5-min Rain = 0
KTH1 090656Z 23003KT 04/03 A3029 RMK A01 T00430027  RH  090%=      5-min Rain = 0
KTH1 090657Z 23003KT 04/03 A3029 RMK A01 T00430027  RH  090%=      5-min Rain = 0
KTH1 090658Z 23003KT 04/03 A3029 RMK A01 T00430027  RH  090%=      5-min Rain = 0
KTH1 090659Z 24004KT 04/03 A3029 RMK A01 T00430027  RH  090%=      5-min Rain = 0
KTH1 090700Z 24004KT 04/03 A3029 RMK A01 T00430028  RH  090%=      5-min Rain = 0
KTH1 090701Z 24004KT 04/03 A3029 RMK A01 T00430028  RH  090%=      5-min Rain = 0
KTH1 090702Z 24004KT 04/03 A3029 RMK A01 T00430029  RH  090%=      5-min Rain = 0
KTH1 090703Z 24003KT 04/03 A3029 RMK A01 T00430029  RH  091%=      5-min Rain = 0
KTH1 090704Z 24004KT 04/03 A3029 RMK A01 T00430029  RH  091%=      5-min Rain = 0
KTH1 090705Z 24004KT 04/03 A3029 RMK A01 T00430030  RH  091%=      5-min Rain = 0
KTH1 090706Z 24004KT 04/03 A3029 RMK A01 T00430030  RH  091%=      5-min Rain = 0
KTH1 090707Z 23004KT 04/03 A3029 RMK A01 T00430030  RH  091%=      5-min Rain = 0
KTH1 090708Z 24004KT 04/03 A3029 RMK A01 T00440030  RH  091%=      5-min Rain = 0
KTH1 090709Z 23004KT 04/03 A3029 RMK A01 T00430030  RH  091%=      5-min Rain = 0
KTH1 090710Z 23004KT 04/03 A3029 RMK A01 T00430029  RH  091%=      5-min Rain = 0
KTH1 090711Z 24004KT 04/03 A3029 RMK A01 T00430029  RH  091%=      5-min Rain = 0
KTH1 090712Z 24004KT 04/03 A3029 RMK A01 T00430029  RH  090%=      5-min Rain = 0
KTH1 090713Z 24004KT 04/03 A3029 RMK A01 T00430029  RH  090%=      5-min Rain = 0
KTH1 090714Z 24004KT 04/03 A3029 RMK A01 T00430028  RH  090%=      5-min Rain = 0
KTH1 090715Z 24004KT 04/03 A3029 RMK A01 T00440029  RH  090%=      5-min Rain = 0
KTH1 090718Z 25004KT 04/03 A3029 RMK A01 T00440030  RH  090%=      5-min Rain = 0
KTH1 090719Z 25003KT 04/03 A3029 RMK A01 T00440030  RH  090%=      5-min Rain = 0
KTH1 090720Z 25003KT 04/03 A3029 RMK A01 T00440030  RH  091%=      5-min Rain = 0
KTH1 090721Z 25004KT 04/03 A3029 RMK A01 T00440031  RH  091%=      5-min Rain = 0
KTH1 090722Z 25003KT 04/03 A3029 RMK A01 T00440031  RH  091%=      5-min Rain = 0
KTH1 090723Z 25003KT 04/03 A3029 RMK A01 T00440031  RH  091%=      5-min Rain = 0
KTH1 090724Z 25004KT 04/03 A3029 RMK A01 T00440031  RH  091%=      5-min Rain = 0
KTH1 090725Z 25003KT 04/03 A3029 RMK A01 T00440032  RH  092%=      5-min Rain = 0
KTH1 090726Z 25003KT 04/03 A3029 RMK A01 T00440032  RH  092%=      5-min Rain = 0
KTH1 090727Z 25003KT 04/03 A3029 RMK A01 T00440033  RH  092%=      5-min Rain = 0
KTH1 090728Z 25003KT 04/03 A3029 RMK A01 T00440033  RH  093%=      5-min Rain = 0
KTH1 090729Z 25003KT 04/03 A3028 RMK A01 T00440034  RH  093%=      5-min Rain = 0
KTH1 090730Z 25003KT 04/04 A3028 RMK A01 T00440035  RH  093%=      5-min Rain = 0
KTH1 090731Z 24003KT 05/04 A3028 RMK A01 T00450035  RH  094%=      5-min Rain = 0
KTH1 090732Z 25004KT 04/04 A3028 RMK A01 T00440035  RH  093%=      5-min Rain = 0
KTH1 090733Z 24004KT 04/03 A3028 RMK A01 T00440034  RH  093%=      5-min Rain = 0
KTH1 090734Z 24004KT 04/03 A3028 RMK A01 T00430033  RH  093%=      5-min Rain = 0
KTH1 090735Z 24004KT 04/03 A3028 RMK A01 T00430033  RH  093%=      5-min Rain = 0
KTH1 090736Z 24004KT 04/03 A3028 RMK A01 T00430032  RH  093%=      5-min Rain = 0
KTH1 090737Z 24004KT 04/03 A3028 RMK A01 T00420031  RH  092%=      5-min Rain = 0
KTH1 090738Z 23004KT 04/03 A3028 RMK A01 T00420030  RH  092%=      5-min Rain = 0
KTH1 090739Z 24004KT 04/03 A3028 RMK A01 T00410029  RH  092%=      5-min Rain = 0
KTH1 090740Z 24004KT 04/03 A3028 RMK A01 T00410029  RH  092%=      5-min Rain = 0
KTH1 090741Z 24003KT 04/03 A3028 RMK A01 T00410029  RH  092%=      5-min Rain = 0
KTH1 090742Z 24003KT 04/03 A3028 RMK A01 T00410029  RH  092%=      5-min Rain = 0
KTH1 090743Z 24004KT 04/03 A3028 RMK A01 T00400029  RH  092%=      5-min Rain = 0
KTH1 090744Z 24003KT 04/03 A3028 RMK A01 T00400029  RH  093%=      5-min Rain = 0
KTH1 090745Z 25004KT 04/03 A3028 RMK A01 T00400029  RH  093%=      5-min Rain = 0
KTH1 090746Z 25004KT 04/03 A3028 RMK A01 T00400029  RH  093%=      5-min Rain = 0
KTH1 090747Z 25004KT 04/03 A3028 RMK A01 T00400029  RH  093%=      5-min Rain = 0
KTH1 090748Z 25004KT 04/03 A3028 RMK A01 T00400030  RH  093%=      5-min Rain = 0
KTH1 090749Z 25004KT 04/03 A3028 RMK A01 T00400030  RH  093%=      5-min Rain = 0
KTH1 090750Z 25004KT 04/03 A3028 RMK A01 T00410031  RH  093%=      5-min Rain = 0
KTH1 090751Z 24004KT 04/03 A3028 RMK A01 T00400030  RH  093%=      5-min Rain = 0
KTH1 090752Z 24004KT 04/03 A3028 RMK A01 T00400030  RH  093%=      5-min Rain = 0
KTH1 090753Z 24005KT 04/03 A3028 RMK A01 T00400030  RH  093%=      5-min Rain = 0
KTH1 090754Z 24005KT 04/03 A3028 RMK A01 T00400029  RH  093%=      5-min Rain = 0
KTH1 090755Z 24005KT 04/03 A3028 RMK A01 T00400029  RH  093%=      5-min Rain = 0
KTH1 090756Z 24005KT 04/03 A3028 RMK A01 T00400028  RH  092%=      5-min Rain = 0
KTH1 090757Z 24004KT 04/03 A3028 RMK A01 T00400028  RH  092%=      5-min Rain = 0
KTH1 090758Z 24004KT 04/03 A3028 RMK A01 T00400028  RH  092%=      5-min Rain = 0
KTH1 090759Z 24004KT 04/03 A3028 RMK A01 T00400028  RH  092%=      5-min Rain = 0
KTH1 090800Z 24004KT 04/03 A3028 RMK A01 T00400028  RH  092%=      5-min Rain = 0
KTH1 090801Z 24004KT 04/03 A3028 RMK A01 T00390028  RH  092%=      5-min Rain = 0
KTH1 090802Z 24004KT 04/03 A3028 RMK A01 T00390027  RH  092%=      5-min Rain = 0
KTH1 090803Z 24004KT 04/03 A3028 RMK A01 T00390027  RH  092%=      5-min Rain = 0
KTH1 090804Z 24004KT 04/03 A3028 RMK A01 T00390027  RH  092%=      5-min Rain = 0
KTH1 090805Z 25004KT 04/03 A3028 RMK A01 T00390027  RH  092%=      5-min Rain = 0
KTH1 090806Z 25004KT 04/03 A3028 RMK A01 T00380027  RH  092%=      5-min Rain = 0
KTH1 090807Z 25004KT 04/03 A3028 RMK A01 T00380027  RH  093%=      5-min Rain = 0
KTH1 090808Z 25004KT 04/03 A3028 RMK A01 T00380028  RH  093%=      5-min Rain = 0
KTH1 090809Z 24004KT 04/03 A3027 RMK A01 T00380028  RH  093%=      5-min Rain = 0
KTH1 090810Z 24005KT 04/03 A3027 RMK A01 T00380028  RH  093%=      5-min Rain = 0
KTH1 090811Z 24005KT 04/03 A3027 RMK A01 T00380028  RH  093%=      5-min Rain = 0
KTH1 090812Z 24005KT 04/03 A3027 RMK A01 T00380028  RH  093%=      5-min Rain = 0
KTH1 090813Z 24005KT 04/03 A3027 RMK A01 T00380028  RH  093%=      5-min Rain = 0
KTH1 090814Z 24005KT 04/03 A3027 RMK A01 T00380028  RH  093%=      5-min Rain = 0
KTH1 090815Z 24005KT 04/03 A3027 RMK A01 T00380027  RH  093%=      5-min Rain = 0
KTH1 090816Z 24005KT 04/03 A3027 RMK A01 T00380027  RH  093%=      5-min Rain = 0
KTH1 090817Z 24005KT 04/03 A3027 RMK A01 T00380027  RH  093%=      5-min Rain = 0
KTH1 090818Z 24005KT 04/03 A3027 RMK A01 T00380027  RH  093%=      5-min Rain = 0
KTH1 090819Z 24005KT 04/03 A3027 RMK A01 T00380027  RH  093%=      5-min Rain = 0
KTH1 090820Z 24005KT 04/03 A3027 RMK A01 T00390027  RH  092%=      5-min Rain = 0
KTH1 090821Z 24005KT 04/03 A3027 RMK A01 T00390027  RH  092%=      5-min Rain = 0
KTH1 090822Z 24005KT 04/03 A3027 RMK A01 T00390027  RH  092%=      5-min Rain = 0
KTH1 090823Z 24005KT 04/03 A3027 RMK A01 T00400028  RH  092%=      5-min Rain = 0
KTH1 090824Z 24005KT 04/03 A3027 RMK A01 T00400028  RH  092%=      5-min Rain = 0
KTH1 090825Z 24005KT 04/03 A3027 RMK A01 T00400028  RH  092%=      5-min Rain = 0
KTH1 090826Z 24005KT 04/03 A3027 RMK A01 T00400029  RH  092%=      5-min Rain = 0
KTH1 090827Z 24005KT 04/03 A3027 RMK A01 T00410030  RH  093%=      5-min Rain = 0
KTH1 090828Z 24005KT 04/03 A3027 RMK A01 T00410030  RH  093%=      5-min Rain = 0
KTH1 090829Z 24006KT 04/03 A3027 RMK A01 T00410030  RH  093%=      5-min Rain = 0
KTH1 090830Z 24006KT 04/03 A3027 RMK A01 T00420031  RH  093%=      5-min Rain = 0
KTH1 090831Z 24006KT 04/03 A3027 RMK A01 T00420031  RH  093%=      5-min Rain = 0
KTH1 090832Z 24006KT 04/03 A3027 RMK A01 T00420031  RH  093%=      5-min Rain = 0
KTH1 090833Z 24006KT 04/03 A3027 RMK A01 T00420031  RH  092%=      5-min Rain = 0
KTH1 090834Z 24006KT 04/03 A3027 RMK A01 T00430031  RH  092%=      5-min Rain = 0
KTH1 090835Z 24006KT 04/03 A3027 RMK A01 T00420031  RH  092%=      5-min Rain = 0
KTH1 090836Z 24005KT 04/03 A3027 RMK A01 T00420031  RH  092%=      5-min Rain = 0
KTH1 090837Z 24005KT 04/03 A3027 RMK A01 T00430031  RH  092%=      5-min Rain = 0
KTH1 090838Z 24005KT 04/03 A3027 RMK A01 T00430031  RH  092%=      5-min Rain = 0
KTH1 090839Z 24005KT 04/03 A3027 RMK A01 T00430032  RH  092%=      5-min Rain = 0
KTH1 090840Z 24005KT 04/03 A3027 RMK A01 T00440032  RH  092%=      5-min Rain = 0
KTH1 090841Z 24005KT 04/03 A3027 RMK A01 T00440033  RH  092%=      5-min Rain = 0
KTH1 090842Z 24005KT 04/03 A3027 RMK A01 T00440032  RH  092%=      5-min Rain = 0
KTH1 090843Z 24005KT 04/03 A3027 RMK A01 T00440033  RH  093%=      5-min Rain = 0
KTH1 090844Z 24005KT 04/03 A3027 RMK A01 T00440033  RH  093%=      5-min Rain = 0
KTH1 090845Z 25005KT 04/03 A3027 RMK A01 T00440033  RH  093%=      5-min Rain = 0
KTH1 090846Z 25004KT 04/03 A3027 RMK A01 T00440033  RH  093%=      5-min Rain = 0
KTH1 090847Z 25004KT 05/04 A3027 RMK A01 T00450035  RH  093%=      5-min Rain = 0
KTH1 090848Z 25004KT 05/04 A3027 RMK A01 T00450035  RH  093%=      5-min Rain = 0
KTH1 090849Z 24005KT 05/04 A3027 RMK A01 T00450035  RH  093%=      5-min Rain = 0
KTH1 090850Z 24005KT 05/04 A3026 RMK A01 T00450036  RH  094%=      5-min Rain = 0
KTH1 090851Z 24005KT 05/04 A3026 RMK A01 T00450036  RH  094%=      5-min Rain = 0
KTH1 090852Z 24005KT 05/04 A3026 RMK A01 T00450036  RH  094%=      5-min Rain = 0
KTH1 090853Z 24005KT 05/04 A3026 RMK A01 T00460036  RH  094%=      5-min Rain = 0
KTH1 090854Z 24006KT 05/04 A3026 RMK A01 T00460037  RH  094%=      5-min Rain = 0
KTH1 090855Z 23006KT 05/04 A3026 RMK A01 T00460037  RH  094%=      5-min Rain = 0
KTH1 090856Z 24006KT 05/04 A3026 RMK A01 T00460037  RH  094%=      5-min Rain = 0
KTH1 090857Z 23006KT 05/04 A3026 RMK A01 T00470037  RH  093%=      5-min Rain = 0
KTH1 090858Z 23006KT 05/04 A3026 RMK A01 T00480037  RH  093%=      5-min Rain = 0
KTH1 090859Z 24005KT 05/04 A3026 RMK A01 T00480038  RH  093%=      5-min Rain = 0
KTH1 090900Z 23006KT 05/04 A3026 RMK A01 T00490038  RH  093%=      5-min Rain = 0
KTH1 090901Z 24006KT 05/04 A3026 RMK A01 T00490038  RH  092%=      5-min Rain = 0
KTH1 090902Z 24005KT 05/04 A3026 RMK A01 T00510039  RH  092%=      5-min Rain = 0
KTH1 090903Z 24005KT 05/04 A3026 RMK A01 T00510039  RH  092%=      5-min Rain = 0
KTH1 090904Z 24005KT 05/04 A3026 RMK A01 T00520040  RH  092%=      5-min Rain = 0
KTH1 090905Z 24005KT 05/04 A3026 RMK A01 T00520040  RH  092%=      5-min Rain = 0
KTH1 090906Z 24005KT 05/04 A3026 RMK A01 T00520041  RH  092%=      5-min Rain = 0
KTH1 090907Z 24005KT 05/04 A3026 RMK A01 T00520041  RH  093%=      5-min Rain = 0
KTH1 090908Z 24005KT 05/04 A3026 RMK A01 T00530042  RH  093%=      5-min Rain = 0
KTH1 090909Z 24005KT 05/04 A3026 RMK A01 T00530042  RH  093%=      5-min Rain = 0
KTH1 090910Z 23005KT 05/04 A3026 RMK A01 T00530041  RH  092%=      5-min Rain = 0
KTH1 090911Z 23005KT 05/04 A3026 RMK A01 T00530040  RH  092%=      5-min Rain = 0
KTH1 090912Z 23005KT 05/04 A3026 RMK A01 T00520040  RH  092%=      5-min Rain = 0
KTH1 090913Z 23005KT 05/04 A3026 RMK A01 T00520039  RH  091%=      5-min Rain = 0
KTH1 090914Z 23004KT 05/04 A3026 RMK A01 T00520039  RH  091%=      5-min Rain = 0
KTH1 090915Z 23005KT 05/04 A3026 RMK A01 T00520039  RH  091%=      5-min Rain = 0
KTH1 090916Z 23005KT 05/04 A3026 RMK A01 T00510039  RH  092%=      5-min Rain = 0
KTH1 090917Z 24005KT 05/04 A3026 RMK A01 T00510039  RH  092%=      5-min Rain = 0
KTH1 090918Z 23005KT 05/04 A3026 RMK A01 T00510039  RH  092%=      5-min Rain = 0
KTH1 090919Z 23005KT 05/04 A3026 RMK A01 T00510039  RH  092%=      5-min Rain = 0
KTH1 090920Z 24005KT 05/04 A3026 RMK A01 T00520039  RH  092%=      5-min Rain = 0
KTH1 090921Z 24006KT 05/04 A3026 RMK A01 T00510039  RH  092%=      5-min Rain = 0
KTH1 090922Z 23005KT 05/04 A3026 RMK A01 T00520039  RH  092%=      5-min Rain = 0
KTH1 090923Z 24005KT 05/04 A3026 RMK A01 T00520040  RH  092%=      5-min Rain = 0
KTH1 090924Z 23005KT 05/04 A3026 RMK A01 T00510039  RH  092%=      5-min Rain = 0
KTH1 090925Z 24005KT 05/04 A3026 RMK A01 T00510039  RH  092%=      5-min Rain = 0
KTH1 090926Z 24005KT 05/04 A3026 RMK A01 T00510039  RH  092%=      5-min Rain = 0
KTH1 090927Z 24005KT 05/04 A3026 RMK A01 T00510040  RH  092%=      5-min Rain = 0
KTH1 090928Z 24005KT 05/04 A3026 RMK A01 T00510040  RH  093%=      5-min Rain = 0
KTH1 090929Z 24005KT 05/04 A3026 RMK A01 T00510040  RH  093%=      5-min Rain = 0
KTH1 090930Z 24005KT 05/04 A3026 RMK A01 T00510040  RH  092%=      5-min Rain = 0
KTH1 090931Z 24005KT 05/04 A3026 RMK A01 T00520040  RH  092%=      5-min Rain = 0
KTH1 090932Z 24005KT 05/04 A3026 RMK A01 T00520040  RH  092%=      5-min Rain = 0
KTH1 090933Z 24005KT 05/04 A3026 RMK A01 T00520041  RH  093%=      5-min Rain = 0
KTH1 090934Z 24005KT 05/04 A3026 RMK A01 T00520042  RH  093%=      5-min Rain = 0
KTH1 090935Z 24005KT 05/04 A3026 RMK A01 T00520042  RH  093%=      5-min Rain = 0
KTH1 090936Z 24005KT 05/04 A3026 RMK A01 T00520042  RH  093%=      5-min Rain = 0
KTH1 090937Z 24005KT 05/04 A3026 RMK A01 T00520042  RH  094%=      5-min Rain = 0
KTH1 090938Z 24005KT 05/04 A3026 RMK A01 T00520042  RH  094%=      5-min Rain = 0
KTH1 090939Z 23005KT 05/04 A3026 RMK A01 T00510042  RH  093%=      5-min Rain = 0
KTH1 090940Z 23006KT 05/04 A3025 RMK A01 T00510041  RH  093%=      5-min Rain = 0
KTH1 090941Z 23006KT 05/04 A3025 RMK A01 T00510041  RH  094%=      5-min Rain = 0
KTH1 090942Z 23006KT 05/04 A3025 RMK A01 T00510041  RH  093%=      5-min Rain = 0
KTH1 090943Z 23005KT 05/04 A3025 RMK A01 T00510040  RH  093%=      5-min Rain = 0
KTH1 090944Z 24005KT 05/04 A3025 RMK A01 T00500039  RH  093%=      5-min Rain = 0
KTH1 090945Z 23006KT 05/04 A3025 RMK A01 T00500039  RH  093%=      5-min Rain = 0
KTH1 090946Z 24006KT 05/04 A3025 RMK A01 T00490039  RH  093%=      5-min Rain = 0
KTH1 090947Z 24006KT 05/04 A3025 RMK A01 T00490039  RH  093%=      5-min Rain = 0
KTH1 090948Z 24006KT 05/04 A3025 RMK A01 T00490039  RH  093%=      5-min Rain = 0
KTH1 090949Z 24005KT 05/04 A3025 RMK A01 T00490039  RH  093%=      5-min Rain = 0
KTH1 090950Z 24006KT 05/04 A3025 RMK A01 T00490039  RH  093%=      5-min Rain = 0
KTH1 090951Z 24006KT 05/04 A3025 RMK A01 T00490039  RH  094%=      5-min Rain = 0
KTH1 090952Z 24005KT 05/04 A3025 RMK A01 T00490040  RH  094%=      5-min Rain = 0
KTH1 090953Z 24005KT 05/04 A3025 RMK A01 T00490040  RH  094%=      5-min Rain = 0
KTH1 090954Z 24005KT 05/04 A3025 RMK A01 T00490040  RH  094%=      5-min Rain = 0
KTH1 090955Z 24005KT 05/04 A3025 RMK A01 T00490040  RH  094%=      5-min Rain = 0
KTH1 090956Z 24005KT 05/04 A3025 RMK A01 T00490040  RH  094%=      5-min Rain = 0
KTH1 090957Z 24005KT 05/04 A3025 RMK A01 T00490041  RH  094%=      5-min Rain = 0
KTH1 090958Z 24005KT 05/04 A3025 RMK A01 T00490041  RH  095%=      5-min Rain = 0
KTH1 090959Z 24006KT 05/04 A3025 RMK A01 T00490041  RH  095%=      5-min Rain = 0
KTH1 091000Z 24006KT 05/04 A3025 RMK A01 T00480040  RH  095%=      5-min Rain = 0
KTH1 091001Z 24005KT 05/04 A3025 RMK A01 T00480041  RH  095%=      5-min Rain = 0
KTH1 091002Z 24005KT 05/04 A3025 RMK A01 T00490041  RH  095%=      5-min Rain = 0
KTH1 091003Z 24006KT 05/04 A3024 RMK A01 T00490041  RH  095%=      5-min Rain = 0
KTH1 091004Z 24006KT 05/04 A3024 RMK A01 T00490041  RH  095%=      5-min Rain = 0
KTH1 091005Z 24007KT 05/04 A3024 RMK A01 T00490041  RH  095%=      5-min Rain = 0
KTH1 091006Z 24006KT 05/04 A3024 RMK A01 T00490041  RH  094%=      5-min Rain = 0
KTH1 091007Z 24006KT 05/04 A3024 RMK A01 T00490040  RH  094%=      5-min Rain = 0
KTH1 091008Z 24006KT 05/04 A3024 RMK A01 T00490040  RH  094%=      5-min Rain = 0
KTH1 091009Z 24006KT 05/04 A3024 RMK A01 T00490040  RH  094%=      5-min Rain = 0
KTH1 091010Z 24007KT 05/04 A3024 RMK A01 T00490040  RH  094%=      5-min Rain = 0
KTH1 091011Z 24007KT 05/04 A3024 RMK A01 T00490040  RH  094%=      5-min Rain = 0
KTH1 091012Z 24007KT 05/04 A3024 RMK A01 T00490041  RH  094%=      5-min Rain = 0
KTH1 091013Z 24006KT 05/04 A3024 RMK A01 T00490040  RH  094%=      5-min Rain = 0
KTH1 091014Z 24007KT 05/04 A3024 RMK A01 T00490040  RH  094%=      5-min Rain = 0
KTH1 091015Z 24007KT 05/04 A3024 RMK A01 T00490040  RH  094%=      5-min Rain = 0
KTH1 091016Z 24006KT 05/04 A3024 RMK A01 T00490040  RH  094%=      5-min Rain = 0
KTH1 091017Z 24007KT 05/04 A3024 RMK A01 T00490040  RH  094%=      5-min Rain = 0
KTH1 091018Z 23006KT 05/04 A3024 RMK A01 T00490041  RH  094%=      5-min Rain = 0
KTH1 091019Z 24007KT 05/04 A3024 RMK A01 T00490041  RH  094%=      5-min Rain = 0
KTH1 091020Z 24006KT 05/04 A3024 RMK A01 T00500041  RH  094%=      5-min Rain = 0
KTH1 091021Z 24007KT 05/04 A3024 RMK A01 T00500041  RH  094%=      5-min Rain = 0
KTH1 091022Z 24007KT 05/04 A3024 RMK A01 T00500041  RH  094%=      5-min Rain = 0
KTH1 091023Z 24007KT 05/04 A3024 RMK A01 T00500041  RH  094%=      5-min Rain = 0
KTH1 091024Z 24007KT 05/04 A3024 RMK A01 T00500040  RH  094%=      5-min Rain = 0
KTH1 091025Z 24007KT 05/04 A3024 RMK A01 T00500040  RH  094%=      5-min Rain = 0
KTH1 091026Z 24007KT 05/04 A3024 RMK A01 T00500041  RH  094%=      5-min Rain = 0
KTH1 091027Z 24007KT 05/04 A3024 RMK A01 T00510041  RH  094%=      5-min Rain = 0
KTH1 091028Z 24007KT 05/04 A3024 RMK A01 T00510042  RH  094%=      5-min Rain = 0
KTH1 091029Z 24008KT 05/04 A3024 RMK A01 T00510041  RH  094%=      5-min Rain = 0
KTH1 091030Z 24007KT 05/04 A3024 RMK A01 T00510042  RH  094%=      5-min Rain = 0
KTH1 091031Z 24008KT 05/04 A3024 RMK A01 T00510041  RH  093%=      5-min Rain = 0
KTH1 091032Z 24008KT 05/04 A3024 RMK A01 T00510041  RH  093%=      5-min Rain = 0
KTH1 091033Z 24007KT 05/04 A3024 RMK A01 T00510041  RH  093%=      5-min Rain = 0
KTH1 091034Z 24007KT 05/04 A3024 RMK A01 T00510042  RH  093%=      5-min Rain = 0
KTH1 091035Z 24007KT 05/04 A3024 RMK A01 T00520042  RH  094%=      5-min Rain = 0
KTH1 091036Z 24007KT 05/04 A3024 RMK A01 T00520042  RH  093%=      5-min Rain = 0
KTH1 091037Z 24007KT 05/04 A3024 RMK A01 T00530043  RH  094%=      5-min Rain = 0
KTH1 091038Z 24007KT 05/04 A3024 RMK A01 T00520042  RH  093%=      5-min Rain = 0
KTH1 091039Z 24006KT 05/04 A3024 RMK A01 T00530042  RH  093%=      5-min Rain = 0
KTH1 091040Z 24007KT 05/04 A3024 RMK A01 T00530043  RH  093%=      5-min Rain = 0
KTH1 091041Z 24006KT 05/04 A3023 RMK A01 T00530043  RH  093%=      5-min Rain = 0
KTH1 091042Z 24007KT 05/04 A3023 RMK A01 T00530043  RH  093%=      5-min Rain = 0
KTH1 091043Z 24008KT 05/04 A3023 RMK A01 T00540043  RH  093%=      5-min Rain = 0
KTH1 091044Z 24007KT 05/04 A3023 RMK A01 T00540043  RH  093%=      5-min Rain = 0
KTH1 091045Z 24007KT 05/04 A3023 RMK A01 T00540043  RH  093%=      5-min Rain = 0
KTH1 091046Z 24008KT 05/04 A3023 RMK A01 T00540043  RH  093%=      5-min Rain = 0
KTH1 091047Z 24008KT 06/04 A3023 RMK A01 T00550043  RH  092%=      5-min Rain = 0
KTH1 091048Z 23008KT 06/04 A3023 RMK A01 T00550044  RH  092%=      5-min Rain = 0
KTH1 091049Z 24009KT 06/04 A3023 RMK A01 T00560044  RH  092%=      5-min Rain = 0
KTH1 091050Z 24008KT 06/04 A3023 RMK A01 T00570044  RH  092%=      5-min Rain = 0
KTH1 091051Z 24008KT 06/04 A3023 RMK A01 T00570044  RH  092%=      5-min Rain = 0
KTH1 091052Z 24009KT 06/04 A3023 RMK A01 T00570044  RH  091%=      5-min Rain = 0
KTH1 091053Z 24009KT 06/04 A3023 RMK A01 T00580044  RH  091%=      5-min Rain = 0
KTH1 091054Z 24008KT 06/04 A3023 RMK A01 T00570044  RH  091%=      5-min Rain = 0
KTH1 091055Z 24008KT 06/04 A3023 RMK A01 T00570044  RH  091%=      5-min Rain = 0
KTH1 091056Z 24008KT 06/04 A3023 RMK A01 T00570044  RH  091%=      5-min Rain = 0
KTH1 091057Z 24008KT 06/04 A3024 RMK A01 T00580044  RH  091%=      5-min Rain = 0
KTH1 091058Z 24007KT 06/04 A3024 RMK A01 T00570044  RH  091%=      5-min Rain = 0
KTH1 091059Z 24008KT 06/04 A3024 RMK A01 T00570044  RH  091%=      5-min Rain = 0
KTH1 091100Z 24008KT 06/04 A3024 RMK A01 T00570044  RH  091%=      5-min Rain = 0
KTH1 091101Z 24008KT 06/05 A3023 RMK A01 T00580045  RH  091%=      5-min Rain = 0
KTH1 091102Z 24008KT 06/05 A3023 RMK A01 T00570045  RH  092%=      5-min Rain = 0
KTH1 091103Z 24008KT 06/05 A3023 RMK A01 T00580045  RH  092%=      5-min Rain = 0
KTH1 091104Z 24008KT 06/04 A3023 RMK A01 T00570044  RH  092%=      5-min Rain = 0
KTH1 091105Z 24008KT 06/04 A3023 RMK A01 T00570044  RH  092%=      5-min Rain = 0
KTH1 091106Z 24009KT 06/04 A3023 RMK A01 T00560044  RH  092%=      5-min Rain = 0
KTH1 091107Z 24008KT 06/04 A3023 RMK A01 T00560044  RH  092%=      5-min Rain = 0
KTH1 091108Z 24009KT 06/04 A3023 RMK A01 T00560044  RH  092%=      5-min Rain = 0
KTH1 091109Z 24008KT 06/04 A3023 RMK A01 T00560044  RH  092%=      5-min Rain = 0
KTH1 091110Z 23008KT 06/04 A3023 RMK A01 T00560044  RH  092%=      5-min Rain = 0
KTH1 091111Z 24008KT 06/04 A3023 RMK A01 T00560044  RH  092%=      5-min Rain = 0
KTH1 091112Z 24007KT 06/04 A3023 RMK A01 T00560044  RH  092%=      5-min Rain = 0
KTH1 091113Z 24007KT 06/04 A3023 RMK A01 T00560044  RH  092%=      5-min Rain = 0
KTH1 091114Z 24008KT 06/04 A3023 RMK A01 T00560044  RH  092%=      5-min Rain = 0
KTH1 091115Z 24008KT 06/04 A3024 RMK A01 T00560044  RH  092%=      5-min Rain = 0
KTH1 091116Z 24007KT 06/04 A3024 RMK A01 T00560044  RH  092%=      5-min Rain = 0
KTH1 091117Z 24008KT 06/04 A3024 RMK A01 T00560044  RH  092%=      5-min Rain = 0
KTH1 091118Z 24007KT 06/04 A3023 RMK A01 T00560044  RH  092%=      5-min Rain = 0
KTH1 091119Z 24008KT 06/04 A3023 RMK A01 T00550044  RH  092%=      5-min Rain = 0
KTH1 091120Z 24007KT 06/04 A3023 RMK A01 T00550044  RH  092%=      5-min Rain = 0
KTH1 091121Z 24008KT 06/04 A3023 RMK A01 T00550044  RH  093%=      5-min Rain = 0
KTH1 091122Z 24008KT 06/04 A3023 RMK A01 T00550044  RH  093%=      5-min Rain = 0
KTH1 091123Z 24008KT 06/04 A3023 RMK A01 T00550044  RH  092%=      5-min Rain = 0
KTH1 091124Z 24008KT 06/04 A3023 RMK A01 T00550044  RH  092%=      5-min Rain = 0
KTH1 091125Z 24009KT 06/04 A3023 RMK A01 T00560044  RH  092%=      5-min Rain = 0
KTH1 091126Z 24008KT 06/04 A3023 RMK A01 T00550044  RH  092%=      5-min Rain = 0
KTH1 091127Z 24008KT 06/04 A3023 RMK A01 T00560044  RH  092%=      5-min Rain = 0
KTH1 091128Z 24008KT 06/04 A3023 RMK A01 T00560044  RH  092%=      5-min Rain = 0
KTH1 091129Z 24008KT 06/04 A3023 RMK A01 T00550044  RH  092%=      5-min Rain = 0
KTH1 091130Z 24008KT 06/05 A3023 RMK A01 T00560045  RH  092%=      5-min Rain = 0
KTH1 091131Z 24008KT 06/05 A3023 RMK A01 T00560045  RH  092%=      5-min Rain = 0
KTH1 091132Z 24008KT 06/05 A3023 RMK A01 T00560045  RH  092%=      5-min Rain = 0
KTH1 091133Z 24009KT 06/05 A3023 RMK A01 T00570046  RH  093%=      5-min Rain = 0
KTH1 091134Z 25008KT 06/05 A3023 RMK A01 T00570046  RH  093%=      5-min Rain = 0
KTH1 091135Z 24008KT 06/05 A3023 RMK A01 T00570047  RH  093%=      5-min Rain = 0
KTH1 091136Z 24008KT 06/05 A3023 RMK A01 T00580047  RH  093%=      5-min Rain = 0
KTH1 091137Z 24008KT 06/05 A3023 RMK A01 T00580047  RH  093%=      5-min Rain = 0
KTH1 091138Z 24008KT 06/05 A3023 RMK A01 T00580047  RH  093%=      5-min Rain = 0
KTH1 091139Z 24008KT 06/05 A3023 RMK A01 T00580047  RH  093%=      5-min Rain = 0
KTH1 091140Z 24008KT 06/05 A3023 RMK A01 T00580047  RH  093%=      5-min Rain = 0
KTH1 091141Z 24007KT 06/05 A3023 RMK A01 T00580047  RH  093%=      5-min Rain = 0
KTH1 091142Z 24007KT 06/05 A3023 RMK A01 T00580047  RH  093%=      5-min Rain = 0
KTH1 091143Z 24007KT 06/05 A3023 RMK A01 T00580047  RH  093%=      5-min Rain = 0
KTH1 091144Z 24008KT 06/05 A3023 RMK A01 T00580047  RH  093%=      5-min Rain = 0
KTH1 091145Z 24008KT 06/05 A3023 RMK A01 T00570046  RH  093%=      5-min Rain = 0
KTH1 091146Z 24008KT 06/05 A3023 RMK A01 T00570046  RH  092%=      5-min Rain = 0
KTH1 091147Z 24008KT 06/05 A3023 RMK A01 T00570046  RH  092%=      5-min Rain = 0
KTH1 091148Z 24007KT 06/05 A3023 RMK A01 T00570046  RH  093%=      5-min Rain = 0
KTH1 091149Z 24008KT 06/05 A3023 RMK A01 T00580047  RH  093%=      5-min Rain = 0
KTH1 091150Z 24008KT 06/05 A3023 RMK A01 T00580048  RH  093%=      5-min Rain = 0
KTH1 091151Z 24007KT 06/05 A3023 RMK A01 T00590048  RH  093%=      5-min Rain = 0
KTH1 091152Z 24008KT 06/05 A3023 RMK A01 T00590048  RH  093%=      5-min Rain = 0
KTH1 091153Z 24007KT 06/05 A3023 RMK A01 T00590048  RH  092%=      5-min Rain = 0
KTH1 091154Z 23007KT 06/05 A3023 RMK A01 T00600048  RH  092%=      5-min Rain = 0
KTH1 091155Z 23007KT 06/05 A3023 RMK A01 T00590047  RH  092%=      5-min Rain = 0
KTH1 091156Z 23008KT 06/05 A3023 RMK A01 T00590046  RH  091%=      5-min Rain = 0
KTH1 091157Z 23007KT 06/05 A3023 RMK A01 T00590046  RH  091%=      5-min Rain = 0
KTH1 091158Z 23007KT 06/05 A3023 RMK A01 T00590046  RH  091%=      5-min Rain = 0
KTH1 091159Z 24008KT 06/05 A3023 RMK A01 T00590045  RH  091%=      5-min Rain = 0
KTH1 091200Z 23007KT 06/05 A3023 RMK A01 T00580045  RH  091%=      5-min Rain = 0
KTH1 091201Z 24008KT 06/05 A3023 RMK A01 T00580045  RH  091%=      5-min Rain = 0
KTH1 091202Z 24008KT 06/05 A3023 RMK A01 T00580046  RH  092%=      5-min Rain = 0
KTH1 091203Z 23008KT 06/05 A3023 RMK A01 T00580045  RH  091%=      5-min Rain = 0
KTH1 091204Z 23007KT 06/05 A3024 RMK A01 T00580045  RH  091%=      5-min Rain = 0
KTH1 091205Z 23007KT 06/05 A3024 RMK A01 T00580045  RH  091%=      5-min Rain = 0
KTH1 091206Z 24007KT 06/05 A3024 RMK A01 T00580045  RH  091%=      5-min Rain = 0
KTH1 091207Z 24007KT 06/05 A3024 RMK A01 T00580045  RH  091%=      5-min Rain = 0
KTH1 091208Z 24007KT 06/05 A3024 RMK A01 T00580045  RH  091%=      5-min Rain = 0
KTH1 091209Z 23007KT 06/05 A3024 RMK A01 T00570045  RH  091%=      5-min Rain = 0
KTH1 091210Z 24007KT 06/04 A3024 RMK A01 T00570044  RH  092%=      5-min Rain = 0
KTH1 091211Z 23007KT 06/04 A3024 RMK A01 T00570044  RH  092%=      5-min Rain = 0
KTH1 091212Z 23008KT 06/04 A3024 RMK A01 T00560044  RH  092%=      5-min Rain = 0
KTH1 091213Z 24008KT 06/04 A3024 RMK A01 T00560044  RH  092%=      5-min Rain = 0
KTH1 091214Z 23008KT 06/04 A3024 RMK A01 T00560044  RH  092%=      5-min Rain = 0
KTH1 091215Z 24008KT 06/04 A3024 RMK A01 T00560044  RH  092%=      5-min Rain = 0
KTH1 091216Z 23008KT 06/04 A3024 RMK A01 T00560044  RH  092%=      5-min Rain = 0
KTH1 091217Z 24008KT 06/04 A3024 RMK A01 T00560044  RH  092%=      5-min Rain = 0
KTH1 091218Z 23008KT 06/04 A3024 RMK A01 T00560044  RH  092%=      5-min Rain = 0
KTH1 091219Z 24008KT 06/04 A3024 RMK A01 T00560044  RH  092%=      5-min Rain = 0
KTH1 091220Z 23008KT 06/04 A3024 RMK A01 T00550044  RH  092%=      5-min Rain = 0
KTH1 091221Z 23008KT 06/04 A3024 RMK A01 T00550044  RH  093%=      5-min Rain = 0
KTH1 091222Z 23008KT 06/04 A3024 RMK A01 T00550044  RH  093%=      5-min Rain = 0
KTH1 091223Z 23008KT 06/04 A3024 RMK A01 T00560044  RH  093%=      5-min Rain = 0
KTH1 091224Z 23009KT 06/04 A3024 RMK A01 T00560044  RH  092%=      5-min Rain = 0
KTH1 091225Z 23009KT 06/05 A3024 RMK A01 T00570045  RH  093%=      5-min Rain = 0
KTH1 091226Z 23009KT 06/05 A3024 RMK A01 T00570046  RH  092%=      5-min Rain = 0
KTH1 091227Z 23010KT 06/05 A3024 RMK A01 T00580046  RH  092%=      5-min Rain = 0
KTH1 091228Z 24008KT 06/05 A3024 RMK A01 T00580046  RH  092%=      5-min Rain = 0
KTH1 091229Z 24008KT 06/05 A3024 RMK A01 T00590046  RH  092%=      5-min Rain = 0
KTH1 091230Z 23008KT 06/05 A3024 RMK A01 T00590046  RH  091%=      5-min Rain = 0
KTH1 091231Z 23008KT 06/05 A3024 RMK A01 T00590046  RH  091%=      5-min Rain = 0
KTH1 091232Z 23009KT 06/05 A3024 RMK A01 T00590045  RH  091%=      5-min Rain = 0
KTH1 091233Z 23007KT 06/05 A3024 RMK A01 T00590046  RH  091%=      5-min Rain = 0
KTH1 091234Z 23008KT 06/05 A3024 RMK A01 T00590046  RH  091%=      5-min Rain = 0
KTH1 091235Z 23009KT 06/05 A3024 RMK A01 T00580045  RH  091%=      5-min Rain = 0
KTH1 091236Z 23008KT 06/05 A3024 RMK A01 T00580045  RH  091%=      5-min Rain = 0
KTH1 091237Z 23008KT 06/05 A3024 RMK A01 T00590046  RH  091%=      5-min Rain = 0
KTH1 091238Z 23008KT 06/05 A3024 RMK A01 T00580046  RH  092%=      5-min Rain = 0
KTH1 091239Z 23008KT 06/05 A3024 RMK A01 T00580046  RH  092%=      5-min Rain = 0
KTH1 091240Z 23008KT 06/05 A3024 RMK A01 T00580045  RH  092%=      5-min Rain = 0
KTH1 091241Z 23008KT 06/05 A3024 RMK A01 T00570045  RH  092%=      5-min Rain = 0
KTH1 091242Z 23008KT 06/05 A3024 RMK A01 T00570045  RH  092%=      5-min Rain = 0
KTH1 091243Z 23008KT 06/05 A3024 RMK A01 T00570046  RH  092%=      5-min Rain = 0
KTH1 091244Z 23008KT 06/05 A3024 RMK A01 T00580046  RH  092%=      5-min Rain = 0
KTH1 091245Z 23009KT 06/05 A3024 RMK A01 T00570045  RH  092%=      5-min Rain = 0
KTH1 091246Z 23009KT 06/05 A3024 RMK A01 T00580046  RH  092%=      5-min Rain = 0
KTH1 091247Z 23009KT 06/05 A3024 RMK A01 T00570045  RH  092%=      5-min Rain = 0
KTH1 091248Z 23008KT 06/05 A3024 RMK A01 T00570045  RH  092%=      5-min Rain = 0
KTH1 091249Z 23007KT 06/05 A3024 RMK A01 T00570045  RH  092%=      5-min Rain = 0
KTH1 091250Z 23008KT 06/05 A3024 RMK A01 T00560045  RH  092%=      5-min Rain = 0
KTH1 091251Z 23008KT 06/05 A3024 RMK A01 T00560045  RH  092%=      5-min Rain = 0
KTH1 091252Z 23007KT 06/05 A3024 RMK A01 T00570045  RH  092%=      5-min Rain = 0
KTH1 091253Z 23006KT 06/05 A3024 RMK A01 T00570046  RH  093%=      5-min Rain = 0
KTH1 091254Z 23007KT 06/05 A3024 RMK A01 T00570046  RH  093%=      5-min Rain = 0
KTH1 091255Z 24008KT 06/05 A3024 RMK A01 T00560045  RH  093%=      5-min Rain = 0
KTH1 091256Z 24007KT 06/05 A3024 RMK A01 T00560046  RH  093%=      5-min Rain = 0
KTH1 091257Z 24007KT 06/05 A3024 RMK A01 T00560045  RH  093%=      5-min Rain = 0
KTH1 091258Z 24008KT 06/05 A3024 RMK A01 T00560046  RH  093%=      5-min Rain = 0
KTH1 091259Z 23008KT 06/05 A3024 RMK A01 T00560045  RH  093%=      5-min Rain = 0
KTH1 091300Z 23007KT 06/05 A3024 RMK A01 T00560046  RH  093%=      5-min Rain = 0
KTH1 091301Z 23008KT 06/05 A3024 RMK A01 T00560046  RH  093%=      5-min Rain = 0
KTH1 091302Z 23008KT 06/05 A3024 RMK A01 T00560046  RH  093%=      5-min Rain = 0
KTH1 091303Z 23008KT 06/05 A3024 RMK A01 T00550045  RH  093%=      5-min Rain = 0
KTH1 091304Z 23008KT 06/05 A3024 RMK A01 T00560045  RH  093%=      5-min Rain = 0
KTH1 091305Z 23007KT 06/05 A3024 RMK A01 T00550045  RH  093%=      5-min Rain = 0
KTH1 091306Z 23006KT 06/05 A3024 RMK A01 T00550045  RH  093%=      5-min Rain = 0
KTH1 091307Z 23008KT 06/05 A3024 RMK A01 T00550045  RH  093%=      5-min Rain = 0
KTH1 091308Z 23006KT 06/05 A3024 RMK A01 T00550045  RH  093%=      5-min Rain = 0
KTH1 091309Z 24006KT 06/05 A3024 RMK A01 T00550046  RH  094%=      5-min Rain = 0
KTH1 091310Z 24007KT 06/05 A3024 RMK A01 T00550046  RH  094%=      5-min Rain = 0
KTH1 091311Z 24006KT 06/05 A3024 RMK A01 T00550046  RH  094%=      5-min Rain = 0
KTH1 091312Z 24007KT 06/05 A3024 RMK A01 T00550046  RH  094%=      5-min Rain = 0
KTH1 091313Z 24006KT 06/05 A3024 RMK A01 T00550046  RH  094%=      5-min Rain = 0
KTH1 091314Z 24006KT 06/05 A3024 RMK A01 T00550046  RH  094%=      5-min Rain = 0
KTH1 091315Z 23005KT 06/05 A3024 RMK A01 T00550046  RH  094%=      5-min Rain = 0
KTH1 091316Z 24006KT 06/05 A3024 RMK A01 T00550046  RH  094%=      5-min Rain = 0
KTH1 091317Z 24007KT 06/05 A3024 RMK A01 T00550046  RH  094%=      5-min Rain = 0
KTH1 091318Z 23006KT 06/05 A3024 RMK A01 T00550046  RH  094%=      5-min Rain = 0
KTH1 091319Z 23005KT 06/05 A3024 RMK A01 T00550046  RH  094%=      5-min Rain = 0
KTH1 091320Z 23006KT 06/05 A3025 RMK A01 T00550046  RH  094%=      5-min Rain = 0
KTH1 091321Z 24006KT 06/05 A3025 RMK A01 T00550046  RH  094%=      5-min Rain = 0
KTH1 091322Z 23006KT 05/05 A3025 RMK A01 T00540046  RH  094%=      5-min Rain = 0
KTH1 091323Z 23006KT 05/05 A3025 RMK A01 T00540046  RH  094%=      5-min Rain = 0
KTH1 091324Z 23007KT 05/05 A3025 RMK A01 T00540046  RH  094%=      5-min Rain = 0
KTH1 091325Z 23007KT 05/05 A3025 RMK A01 T00540046  RH  094%=      5-min Rain = 0
KTH1 091326Z 23006KT 05/05 A3025 RMK A01 T00540046  RH  094%=      5-min Rain = 0
KTH1 091327Z 23008KT 06/05 A3025 RMK A01 T00550046  RH  094%=      5-min Rain = 0
KTH1 091328Z 23006KT 06/05 A3025 RMK A01 T00550046  RH  094%=      5-min Rain = 0
KTH1 091329Z 23007KT 06/05 A3025 RMK A01 T00550046  RH  094%=      5-min Rain = 0
KTH1 091330Z 23007KT 06/05 A3025 RMK A01 T00550046  RH  094%=      5-min Rain = 0
KTH1 091331Z 23006KT 06/05 A3025 RMK A01 T00550046  RH  094%=      5-min Rain = 0
KTH1 091332Z 23007KT 06/05 A3025 RMK A01 T00560047  RH  094%=      5-min Rain = 0
KTH1 091333Z 23008KT 06/05 A3025 RMK A01 T00570047  RH  094%=      5-min Rain = 0
KTH1 091334Z 23007KT 06/05 A3025 RMK A01 T00570047  RH  093%=      5-min Rain = 0
KTH1 091335Z 23006KT 06/05 A3025 RMK A01 T00580047  RH  093%=      5-min Rain = 0
KTH1 091336Z 23006KT 06/05 A3025 RMK A01 T00580048  RH  093%=      5-min Rain = 0
KTH1 091337Z 23005KT 06/05 A3025 RMK A01 T00580048  RH  093%=      5-min Rain = 0
KTH1 091338Z 23006KT 06/05 A3025 RMK A01 T00590048  RH  093%=      5-min Rain = 0
KTH1 091339Z 23007KT 06/05 A3025 RMK A01 T00590048  RH  093%=      5-min Rain = 0
KTH1 091340Z 23006KT 06/05 A3025 RMK A01 T00590048  RH  093%=      5-min Rain = 0
KTH1 091341Z 24006KT 06/05 A3025 RMK A01 T00600049  RH  093%=      5-min Rain = 0
KTH1 091342Z 24006KT 06/05 A3025 RMK A01 T00600049  RH  093%=      5-min Rain = 0
KTH1 091343Z 24007KT 06/05 A3025 RMK A01 T00600049  RH  092%=      5-min Rain = 0
KTH1 091344Z 23007KT 06/05 A3025 RMK A01 T00610050  RH  092%=      5-min Rain = 0
KTH1 091345Z 24006KT 06/05 A3025 RMK A01 T00610050  RH  092%=      5-min Rain = 0
KTH1 091346Z 24007KT 06/05 A3025 RMK A01 T00620050  RH  092%=      5-min Rain = 0
KTH1 091347Z 24007KT 06/05 A3025 RMK A01 T00620051  RH  092%=      5-min Rain = 0
KTH1 091348Z 24007KT 06/05 A3025 RMK A01 T00630051  RH  092%=      5-min Rain = 0
KTH1 091349Z 24007KT 06/05 A3025 RMK A01 T00640052  RH  092%=      5-min Rain = 0
KTH1 091350Z 24007KT 06/05 A3025 RMK A01 T00640052  RH  092%=      5-min Rain = 0
KTH1 091351Z 24007KT 07/05 A3025 RMK A01 T00650052  RH  092%=      5-min Rain = 0
KTH1 091352Z 24006KT 07/05 A3025 RMK A01 T00650053  RH  092%=      5-min Rain = 0
KTH1 091353Z 24006KT 07/05 A3025 RMK A01 T00670053  RH  091%=      5-min Rain = 0
KTH1 091354Z 24006KT 07/05 A3025 RMK A01 T00670054  RH  091%=      5-min Rain = 0
KTH1 091355Z 24007KT 07/05 A3025 RMK A01 T00680054  RH  091%=      5-min Rain = 0
KTH1 091356Z 24008KT 07/06 A3025 RMK A01 T00690055  RH  091%=      5-min Rain = 0
KTH1 091357Z 24008KT 07/06 A3025 RMK A01 T00690055  RH  090%=      5-min Rain = 0
KTH1 091358Z 24008KT 07/06 A3025 RMK A01 T00700055  RH  090%=      5-min Rain = 0
KTH1 091359Z 24008KT 07/06 A3025 RMK A01 T00700055  RH  090%=      5-min Rain = 0
KTH1 091400Z 24008KT 07/06 A3025 RMK A01 T00710055  RH  090%=      5-min Rain = 0
KTH1 091401Z 24008KT 07/06 A3025 RMK A01 T00710056  RH  090%=      5-min Rain = 0
KTH1 091402Z 24007KT 07/06 A3025 RMK A01 T00720056  RH  090%=      5-min Rain = 0
KTH1 091403Z 24007KT 07/06 A3025 RMK A01 T00720056  RH  090%=      5-min Rain = 0
KTH1 091404Z 24007KT 07/06 A3025 RMK A01 T00720056  RH  090%=      5-min Rain = 0
KTH1 091405Z 24007KT 07/06 A3025 RMK A01 T00720057  RH  090%=      5-min Rain = 0
KTH1 091406Z 24008KT 07/06 A3025 RMK A01 T00730057  RH  090%=      5-min Rain = 0
KTH1 091407Z 24008KT 07/06 A3025 RMK A01 T00730056  RH  089%=      5-min Rain = 0
KTH1 091408Z 24007KT 07/06 A3025 RMK A01 T00730057  RH  089%=      5-min Rain = 0
KTH1 091409Z 24008KT 07/06 A3025 RMK A01 T00730057  RH  089%=      5-min Rain = 0
KTH1 091410Z 24007KT 07/06 A3025 RMK A01 T00740057  RH  089%=      5-min Rain = 0
KTH1 091411Z 24008KT 07/06 A3025 RMK A01 T00740058  RH  089%=      5-min Rain = 0
KTH1 091412Z 24008KT 08/06 A3025 RMK A01 T00750059  RH  090%=      5-min Rain = 0
KTH1 091413Z 24008KT 08/06 A3025 RMK A01 T00750060  RH  090%=      5-min Rain = 0
KTH1 091414Z 24008KT 08/06 A3025 RMK A01 T00760061  RH  090%=      5-min Rain = 0
KTH1 091415Z 24008KT 08/06 A3025 RMK A01 T00770061  RH  090%=      5-min Rain = 0
KTH1 091416Z 24009KT 08/06 A3025 RMK A01 T00780061  RH  089%=      5-min Rain = 0
KTH1 091417Z 24008KT 08/06 A3025 RMK A01 T00780062  RH  089%=      5-min Rain = 0
KTH1 091418Z 23008KT 08/06 A3025 RMK A01 T00790062  RH  089%=      5-min Rain = 0
KTH1 091419Z 24009KT 08/06 A3025 RMK A01 T00800062  RH  088%=      5-min Rain = 0
KTH1 091420Z 23008KT 08/06 A3025 RMK A01 T00800062  RH  088%=      5-min Rain = 0
KTH1 091421Z 24008KT 08/06 A3025 RMK A01 T00810062  RH  088%=      5-min Rain = 0
KTH1 091422Z 24009KT 08/06 A3025 RMK A01 T00810062  RH  088%=      5-min Rain = 0
KTH1 091423Z 24008KT 08/06 A3025 RMK A01 T00820063  RH  088%=      5-min Rain = 0
KTH1 091424Z 24010KT 08/06 A3025 RMK A01 T00820063  RH  088%=      5-min Rain = 0
KTH1 091425Z 24009KT 08/06 A3025 RMK A01 T00830063  RH  087%=      5-min Rain = 0
KTH1 091426Z 24009KT 08/06 A3025 RMK A01 T00830063  RH  087%=      5-min Rain = 0
KTH1 091427Z 24010KT 08/06 A3025 RMK A01 T00840064  RH  087%=      5-min Rain = 0
KTH1 091428Z 24009KT 09/06 A3025 RMK A01 T00850064  RH  087%=      5-min Rain = 0
KTH1 091429Z 23008KT 09/06 A3025 RMK A01 T00850064  RH  086%=      5-min Rain = 0
KTH1 091430Z 24009KT 09/06 A3025 RMK A01 T00850064  RH  086%=      5-min Rain = 0
KTH1 091431Z 24009KT 09/06 A3025 RMK A01 T00860064  RH  086%=      5-min Rain = 0
KTH1 091432Z 24008KT 09/07 A3025 RMK A01 T00860065  RH  086%=      5-min Rain = 0
KTH1 091433Z 23010KT 09/07 A3025 RMK A01 T00870065  RH  086%=      5-min Rain = 0
KTH1 091434Z 24009KT 09/07 A3025 RMK A01 T00870065  RH  086%=      5-min Rain = 0
KTH1 091435Z 23009KT 09/07 A3025 RMK A01 T00870065  RH  086%=      5-min Rain = 0
KTH1 091436Z 24010KT 09/07 A3025 RMK A01 T00880065  RH  086%=      5-min Rain = 0
KTH1 091437Z 24009KT 09/07 A3025 RMK A01 T00880066  RH  086%=      5-min Rain = 0
KTH1 091438Z 24010KT 09/07 A3025 RMK A01 T00890066  RH  086%=      5-min Rain = 0
KTH1 091439Z 24010KT 09/07 A3025 RMK A01 T00890067  RH  086%=      5-min Rain = 0
KTH1 091440Z 23009KT 09/07 A3025 RMK A01 T00900067  RH  085%=      5-min Rain = 0
KTH1 091441Z 24009KT 09/07 A3025 RMK A01 T00900066  RH  085%=      5-min Rain = 0
KTH1 091442Z 24009KT 09/07 A3025 RMK A01 T00900067  RH  085%=      5-min Rain = 0
KTH1 091443Z 24010KT 09/07 A3025 RMK A01 T00910067  RH  085%=      5-min Rain = 0
KTH1 091444Z 24008KT 09/07 A3025 RMK A01 T00910067  RH  085%=      5-min Rain = 0
KTH1 091445Z 24010KT 09/07 A3025 RMK A01 T00920067  RH  085%=      5-min Rain = 0
KTH1 091446Z 23009KT 09/07 A3025 RMK A01 T00920068  RH  085%=      5-min Rain = 0
KTH1 091447Z 23010KT 09/07 A3025 RMK A01 T00930068  RH  085%=      5-min Rain = 0
KTH1 091448Z 24011KT 09/07 A3025 RMK A01 T00930068  RH  084%=      5-min Rain = 0
KTH1 091449Z 24009KT 09/07 A3025 RMK A01 T00940068  RH  084%=      5-min Rain = 0
KTH1 091450Z 24007KT 09/07 A3025 RMK A01 T00940069  RH  084%=      5-min Rain = 0
KTH1 091451Z 24010KT 10/07 A3025 RMK A01 T00950069  RH  084%=      5-min Rain = 0
KTH1 091452Z 24009KT 10/07 A3026 RMK A01 T00960069  RH  083%=      5-min Rain = 0
KTH1 091453Z 23008KT 10/07 A3026 RMK A01 T00960070  RH  084%=      5-min Rain = 0
KTH1 091454Z 23008KT 10/07 A3026 RMK A01 T00970071  RH  083%=      5-min Rain = 0
KTH1 091455Z 24008KT 10/07 A3026 RMK A01 T00980069  RH  083%=      5-min Rain = 0
KTH1 091456Z 24008KT 10/07 A3026 RMK A01 T00980069  RH  082%=      5-min Rain = 0
KTH1 091457Z 24009KT 10/07 A3026 RMK A01 T00980070  RH  083%=      5-min Rain = 0
KTH1 091458Z 24009KT 10/07 A3026 RMK A01 T00990071  RH  083%=      5-min Rain = 0
KTH1 091459Z 23009KT 10/07 A3026 RMK A01 T00990070  RH  082%=      5-min Rain = 0
KTH1 091500Z 24009KT 10/07 A3026 RMK A01 T00990070  RH  082%=      5-min Rain = 0
KTH1 091501Z 24009KT 10/07 A3026 RMK A01 T01000072  RH  083%=      5-min Rain = 0
KTH1 091502Z 24008KT 10/07 A3026 RMK A01 T01010073  RH  083%=      5-min Rain = 0
KTH1 091503Z 23008KT 10/07 A3026 RMK A01 T01010072  RH  082%=      5-min Rain = 0
KTH1 091504Z 24008KT 10/07 A3026 RMK A01 T01010071  RH  082%=      5-min Rain = 0
KTH1 091505Z 24008KT 10/07 A3025 RMK A01 T01020073  RH  082%=      5-min Rain = 0
KTH1 091506Z 24009KT 10/07 A3025 RMK A01 T01030073  RH  082%=      5-min Rain = 0
KTH1 091507Z 24008KT 10/07 A3025 RMK A01 T01030073  RH  082%=      5-min Rain = 0
KTH1 091508Z 24010KT 10/07 A3025 RMK A01 T01040074  RH  082%=      5-min Rain = 0
KTH1 091509Z 24009KT 10/07 A3025 RMK A01 T01040073  RH  081%=      5-min Rain = 0
KTH1 091510Z 24009KT 10/07 A3025 RMK A01 T01040074  RH  081%=      5-min Rain = 0
KTH1 091511Z 24007KT 11/08 A3025 RMK A01 T01050076  RH  082%=      5-min Rain = 0
KTH1 091512Z 23008KT 11/08 A3025 RMK A01 T01060076  RH  082%=      5-min Rain = 0
KTH1 091513Z 24008KT 11/08 A3025 RMK A01 T01080077  RH  081%=      5-min Rain = 0
KTH1 091514Z 23011KT 11/08 A3025 RMK A01 T01090076  RH  080%=      5-min Rain = 0
KTH1 091515Z 24010KT 11/08 A3025 RMK A01 T01090075  RH  079%=      5-min Rain = 0
KTH1 091516Z 24010KT 11/08 A3025 RMK A01 T01090075  RH  080%=      5-min Rain = 0
KTH1 091517Z 24009KT 11/08 A3025 RMK A01 T01100077  RH  080%=      5-min Rain = 0
KTH1 091518Z 24009KT 11/08 A3025 RMK A01 T01100077  RH  080%=      5-min Rain = 0
KTH1 091519Z 23010KT 11/08 A3025 RMK A01 T01110077  RH  079%=      5-min Rain = 0
KTH1 091520Z 23009KT 11/08 A3025 RMK A01 T01110077  RH  080%=      5-min Rain = 0
KTH1 091521Z 24010KT 11/08 A3025 RMK A01 T01120076  RH  079%=      5-min Rain = 0
KTH1 091522Z 24007KT 11/08 A3025 RMK A01 T01120078  RH  079%=      5-min Rain = 0
KTH1 091523Z 24008KT 11/08 A3025 RMK A01 T01130079  RH  079%=      5-min Rain = 0
KTH1 091524Z 23011KT 11/08 A3025 RMK A01 T01140078  RH  079%=      5-min Rain = 0
KTH1 091525Z 23010KT 12/08 A3025 RMK A01 T01150077  RH  078%=      5-min Rain = 0
KTH1 091526Z 23009KT 12/08 A3025 RMK A01 T01150077  RH  078%=      5-min Rain = 0
KTH1 091527Z 23011KT 12/08 A3025 RMK A01 T01160078  RH  078%=      5-min Rain = 0
KTH1 091528Z 23010KT 12/08 A3025 RMK A01 T01160078  RH  077%=      5-min Rain = 0
KTH1 091529Z 24011KT 12/08 A3025 RMK A01 T01170078  RH  077%=      5-min Rain = 0
KTH1 091530Z 23008KT 12/08 A3025 RMK A01 T01180079  RH  077%=      5-min Rain = 0
KTH1 091531Z 23010KT 12/08 A3025 RMK A01 T01190080  RH  077%=      5-min Rain = 0
KTH1 091532Z 23010KT 12/08 A3025 RMK A01 T01200079  RH  076%=      5-min Rain = 0
KTH1 091533Z 23010KT 12/08 A3025 RMK A01 T01200079  RH  076%=      5-min Rain = 0
KTH1 091534Z 23008KT 12/08 A3025 RMK A01 T01210080  RH  076%=      5-min Rain = 0
KTH1 091535Z 24007KT 12/08 A3025 RMK A01 T01220081  RH  076%=      5-min Rain = 0
KTH1 091536Z 23007KT 12/08 A3025 RMK A01 T01230081  RH  075%=      5-min Rain = 0
KTH1 091537Z 24007KT 12/08 A3025 RMK A01 T01230082  RH  076%=      5-min Rain = 0
KTH1 091538Z 24008KT 12/08 A3025 RMK A01 T01240082  RH  076%=      5-min Rain = 0
KTH1 091539Z 23008KT 12/08 A3025 RMK A01 T01240081  RH  075%=      5-min Rain = 0
KTH1 091540Z 23008KT 13/08 A3025 RMK A01 T01250081  RH  074%=      5-min Rain = 0
KTH1 091541Z 23007KT 13/08 A3025 RMK A01 T01250080  RH  074%=      5-min Rain = 0
KTH1 091542Z 23007KT 13/08 A3025 RMK A01 T01250082  RH  075%=      5-min Rain = 0
KTH1 091543Z 24007KT 13/08 A3025 RMK A01 T01260082  RH  074%=      5-min Rain = 0
KTH1 091544Z 23007KT 13/08 A3025 RMK A01 T01260081  RH  074%=      5-min Rain = 0
KTH1 091545Z 23006KT 13/08 A3025 RMK A01 T01260081  RH  074%=      5-min Rain = 0
KTH1 091546Z 23009KT 13/08 A3025 RMK A01 T01270083  RH  075%=      5-min Rain = 0
KTH1 091547Z 23009KT 13/08 A3025 RMK A01 T01280082  RH  074%=      5-min Rain = 0
KTH1 091548Z 23008KT 13/08 A3025 RMK A01 T01290082  RH  073%=      5-min Rain = 0
KTH1 091549Z 23009KT 13/08 A3025 RMK A01 T01300081  RH  072%=      5-min Rain = 0
KTH1 091550Z 24007KT 13/08 A3026 RMK A01 T01300082  RH  073%=      5-min Rain = 0
KTH1 091551Z 24007KT 13/08 A3026 RMK A01 T01310084  RH  073%=      5-min Rain = 0
KTH1 091552Z 25007KT 13/08 A3026 RMK A01 T01320083  RH  072%=      5-min Rain = 0
KTH1 091553Z 25009KT 13/09 A3026 RMK A01 T01320085  RH  073%=      5-min Rain = 0
KTH1 091554Z 25009KT 13/09 A3026 RMK A01 T01330086  RH  073%=      5-min Rain = 0
KTH1 091555Z 24008KT 13/09 A3026 RMK A01 T01330085  RH  072%=      5-min Rain = 0
KTH1 091556Z 24010KT 13/08 A3026 RMK A01 T01330083  RH  072%=      5-min Rain = 0
KTH1 091557Z 24008KT 13/08 A3026 RMK A01 T01330082  RH  071%=      5-min Rain = 0
KTH1 091558Z 26008KT 13/08 A3026 RMK A01 T01330084  RH  072%=      5-min Rain = 0
KTH1 091559Z 25009KT 13/09 A3026 RMK A01 T01340088  RH  073%=      5-min Rain = 0
KTH1 091600Z 24010KT 14/09 A3026 RMK A01 T01350086  RH  072%=      5-min Rain = 0
KTH1 091601Z 25009KT 14/08 A3026 RMK A01 T01360083  RH  071%=      5-min Rain = 0
KTH1 091602Z 25007KT 14/09 A3026 RMK A01 T01370086  RH  071%=      5-min Rain = 0
KTH1 091603Z 25008KT 14/09 A3026 RMK A01 T01380086  RH  071%=      5-min Rain = 0
KTH1 091604Z 24007KT 14/09 A3026 RMK A01 T01370085  RH  071%=      5-min Rain = 0
KTH1 091605Z 24008KT 14/09 A3026 RMK A01 T01380085  RH  070%=      5-min Rain = 0
KTH1 091606Z 24009KT 14/08 A3025 RMK A01 T01380084  RH  070%=      5-min Rain = 0
KTH1 091607Z 25011KT 14/09 A3025 RMK A01 T01390085  RH  070%=      5-min Rain = 0
KTH1 091608Z 25012KT 14/09 A3025 RMK A01 T01390087  RH  071%=      5-min Rain = 0
KTH1 091609Z 24011KT 14/09 A3025 RMK A01 T01390087  RH  070%=      5-min Rain = 0
KTH1 091610Z 24010KT 14/08 A3025 RMK A01 T01390084  RH  069%=      5-min Rain = 0
KTH1 091611Z 24010KT 14/08 A3025 RMK A01 T01390084  RH  069%=      5-min Rain = 0
KTH1 091612Z 24010KT 14/08 A3025 RMK A01 T01410084  RH  069%=      5-min Rain = 0
KTH1 091613Z 24009KT 14/08 A3025 RMK A01 T01420084  RH  068%=      5-min Rain = 0
KTH1 091614Z 24007KT 14/09 A3025 RMK A01 T01420085  RH  068%=      5-min Rain = 0
KTH1 091615Z 23007KT 14/09 A3025 RMK A01 T01440086  RH  068%=      5-min Rain = 0
KTH1 091616Z 22007KT 15/09 A3025 RMK A01 T01450085  RH  067%=      5-min Rain = 0
KTH1 091617Z 23007KT 15/09 A3025 RMK A01 T01470087  RH  067%=      5-min Rain = 0
KTH1 091618Z 24008KT 15/09 A3025 RMK A01 T01480087  RH  067%=      5-min Rain = 0
KTH1 091619Z 24011KT 15/09 A3025 RMK A01 T01490086  RH  066%=      5-min Rain = 0
KTH1 091620Z 25011KT 15/09 A3025 RMK A01 T01490087  RH  066%=      5-min Rain = 0
KTH1 091621Z 24009KT 15/09 A3025 RMK A01 T01480088  RH  067%=      5-min Rain = 0
KTH1 091622Z 24006KT 15/09 A3025 RMK A01 T01480089  RH  068%=      5-min Rain = 0
KTH1 091623Z 24008KT 15/09 A3025 RMK A01 T01500087  RH  066%=      5-min Rain = 0
KTH1 091624Z 23007G12KT 15/09 A3025 RMK A01 T01510087  RH  066%=      5-min Rain = 0
KTH1 091625Z 24008KT 15/09 A3025 RMK A01 T01520088  RH  065%=      5-min Rain = 0
KTH1 091626Z 24010KT 15/09 A3025 RMK A01 T01540088  RH  065%=      5-min Rain = 0
KTH1 091627Z 24008KT 15/09 A3024 RMK A01 T01540089  RH  065%=      5-min Rain = 0
KTH1 091628Z 24010KT 15/09 A3024 RMK A01 T01540088  RH  065%=      5-min Rain = 0
KTH1 091629Z 24006KT 15/09 A3024 RMK A01 T01540089  RH  065%=      5-min Rain = 0
KTH1 091630Z 25009KT 16/09 A3024 RMK A01 T01560090  RH  065%=      5-min Rain = 0
KTH1 091631Z 25011KT 16/09 A3024 RMK A01 T01560089  RH  065%=      5-min Rain = 0
KTH1 091632Z 25012KT 16/09 A3024 RMK A01 T01550091  RH  065%=      5-min Rain = 0
KTH1 091633Z 24013KT 15/09 A3024 RMK A01 T01540090  RH  065%=      5-min Rain = 0
KTH1 091634Z 24012KT 15/09 A3024 RMK A01 T01530089  RH  065%=      5-min Rain = 0
KTH1 091635Z 24012KT 15/09 A3024 RMK A01 T01530089  RH  065%=      5-min Rain = 0
KTH1 091636Z 23010KT 15/09 A3024 RMK A01 T01530089  RH  065%=      5-min Rain = 0
KTH1 091637Z 25012KT 15/09 A3024 RMK A01 T01540088  RH  065%=      5-min Rain = 0
KTH1 091638Z 24010KT 15/09 A3024 RMK A01 T01540090  RH  065%=      5-min Rain = 0
KTH1 091639Z 24010KT 16/09 A3024 RMK A01 T01550090  RH  065%=      5-min Rain = 0
KTH1 091640Z 25012KT 16/09 A3024 RMK A01 T01560090  RH  065%=      5-min Rain = 0
KTH1 091641Z 26011KT 16/09 A3024 RMK A01 T01550091  RH  065%=      5-min Rain = 0
KTH1 091642Z 25010KT 16/09 A3024 RMK A01 T01550093  RH  066%=      5-min Rain = 0
KTH1 091643Z 23009KT 16/09 A3024 RMK A01 T01570093  RH  066%=      5-min Rain = 0
KTH1 091644Z 23008KT 16/09 A3024 RMK A01 T01580090  RH  064%=      5-min Rain = 0
KTH1 091645Z 22008KT 16/09 A3024 RMK A01 T01580090  RH  064%=      5-min Rain = 0
KTH1 091646Z 23007KT 16/09 A3024 RMK A01 T01590091  RH  064%=      5-min Rain = 0
KTH1 091647Z 25009KT 16/09 A3024 RMK A01 T01620092  RH  063%=      5-min Rain = 0
KTH1 091648Z 24008KT 16/09 A3024 RMK A01 T01620092  RH  063%=      5-min Rain = 0
KTH1 091649Z 24008KT 16/09 A3024 RMK A01 T01630094  RH  064%=      5-min Rain = 0
KTH1 091650Z 24008KT 16/09 A3024 RMK A01 T01640092  RH  063%=      5-min Rain = 0
KTH1 091651Z 24009KT 16/09 A3024 RMK A01 T01640092  RH  062%=      5-min Rain = 0
KTH1 091652Z 24009KT 16/09 A3024 RMK A01 T01640093  RH  063%=      5-min Rain = 0
KTH1 091653Z 24011KT 16/09 A3024 RMK A01 T01640093  RH  063%=      5-min Rain = 0
KTH1 091654Z 23010KT 16/09 A3024 RMK A01 T01640092  RH  062%=      5-min Rain = 0
KTH1 091655Z 22007KT 17/09 A3024 RMK A01 T01650094  RH  063%=      5-min Rain = 0
KTH1 091656Z 24010KT 17/10 A3024 RMK A01 T01680095  RH  062%=      5-min Rain = 0
KTH1 091657Z 25010KT 17/10 A3024 RMK A01 T01690095  RH  062%=      5-min Rain = 0
KTH1 091658Z 25009KT 17/10 A3024 RMK A01 T01680096  RH  062%=      5-min Rain = 0
KTH1 091659Z 25011KT 17/10 A3024 RMK A01 T01670096  RH  063%=      5-min Rain = 0
KTH1 091700Z 25010KT 17/10 A3024 RMK A01 T01650096  RH  064%=      5-min Rain = 0
KTH1 091701Z 23008KT 17/10 A3024 RMK A01 T01650096  RH  064%=      5-min Rain = 0
KTH1 091702Z 24009KT 17/09 A3024 RMK A01 T01660094  RH  063%=      5-min Rain = 0
KTH1 091703Z 22006KT 17/09 A3024 RMK A01 T01670094  RH  062%=      5-min Rain = 0
KTH1 091704Z 22010KT 17/10 A3024 RMK A01 T01680095  RH  062%=      5-min Rain = 0
KTH1 091705Z 23009KT 17/10 A3024 RMK A01 T01690095  RH  062%=      5-min Rain = 0
KTH1 091706Z 24010KT 17/10 A3024 RMK A01 T01700095  RH  061%=      5-min Rain = 0
KTH1 091707Z 25009KT 17/10 A3024 RMK A01 T01700095  RH  061%=      5-min Rain = 0
KTH1 091708Z 25011KT 17/10 A3024 RMK A01 T01690096  RH  062%=      5-min Rain = 0
KTH1 091709Z 24012KT 17/10 A3024 RMK A01 T01680097  RH  063%=      5-min Rain = 0
KTH1 091710Z 25011KT 17/10 A3023 RMK A01 T01680098  RH  063%=      5-min Rain = 0
KTH1 091711Z 24009KT 17/10 A3023 RMK A01 T01680098  RH  063%=      5-min Rain = 0
KTH1 091712Z 24010KT 17/10 A3023 RMK A01 T01690097  RH  062%=      5-min Rain = 0
KTH1 091713Z 24011KT 17/10 A3023 RMK A01 T01690097  RH  062%=      5-min Rain = 0
KTH1 091714Z 25010KT 17/10 A3023 RMK A01 T01690097  RH  062%=      5-min Rain = 0
KTH1 091715Z 24008KT 17/10 A3023 RMK A01 T01690099  RH  063%=      5-min Rain = 0
KTH1 091716Z 25010KT 17/10 A3023 RMK A01 T01690101  RH  064%=      5-min Rain = 0
KTH1 091717Z 25011KT 17/10 A3023 RMK A01 T01700101  RH  064%=      5-min Rain = 0
KTH1 091718Z 25012KT 17/10 A3023 RMK A01 T01700099  RH  063%=      5-min Rain = 0
KTH1 091719Z 25010KT 17/10 A3023 RMK A01 T01700100  RH  064%=      5-min Rain = 0
KTH1 091720Z 24009KT 17/10 A3023 RMK A01 T01700100  RH  063%=      5-min Rain = 0
KTH1 091721Z 25011KT 17/10 A3023 RMK A01 T01700100  RH  063%=      5-min Rain = 0
KTH1 091722Z 26010KT 17/10 A3023 RMK A01 T01700101  RH  064%=      5-min Rain = 0
KTH1 091723Z 24009KT 17/10 A3023 RMK A01 T01710101  RH  064%=      5-min Rain = 0
KTH1 091724Z 23009KT 17/10 A3023 RMK A01 T01720100  RH  063%=      5-min Rain = 0
KTH1 091725Z 24008KT 17/10 A3023 RMK A01 T01740101  RH  062%=      5-min Rain = 0
KTH1 091726Z 24009KT 18/10 A3023 RMK A01 T01750102  RH  062%=      5-min Rain = 0
KTH1 091727Z 24010KT 18/10 A3023 RMK A01 T01770102  RH  062%=      5-min Rain = 0
KTH1 091728Z 25013KT 18/10 A3023 RMK A01 T01770102  RH  062%=      5-min Rain = 0
KTH1 091729Z 24012KT 18/10 A3023 RMK A01 T01750102  RH  062%=      5-min Rain = 0
KTH1 091730Z 25011KT 17/10 A3023 RMK A01 T01740102  RH  063%=      5-min Rain = 0
KTH1 091731Z 25012KT 17/10 A3023 RMK A01 T01740102  RH  063%=      5-min Rain = 0
KTH1 091732Z 23007KT 17/10 A3023 RMK A01 T01740103  RH  063%=      5-min Rain = 0
KTH1 091733Z 25009KT 18/10 A3023 RMK A01 T01760104  RH  062%=      5-min Rain = 0
KTH1 091734Z 25011KT 18/10 A3023 RMK A01 T01770104  RH  062%=      5-min Rain = 0
KTH1 091735Z 24010KT 18/10 A3023 RMK A01 T01760103  RH  062%=      5-min Rain = 0
KTH1 091736Z 24009KT 18/10 A3023 RMK A01 T01750104  RH  063%=      5-min Rain = 0
KTH1 091737Z 24008KT 18/10 A3022 RMK A01 T01760102  RH  062%=      5-min Rain = 0
KTH1 091738Z 24007KT 18/10 A3022 RMK A01 T01790104  RH  061%=      5-min Rain = 0
KTH1 091739Z 26008KT 18/10 A3022 RMK A01 T01800103  RH  060%=      5-min Rain = 0
KTH1 091740Z 25008KT 18/10 A3022 RMK A01 T01800103  RH  061%=      5-min Rain = 0
KTH1 091741Z 24006KT 18/10 A3022 RMK A01 T01800104  RH  061%=      5-min Rain = 0
KTH1 091742Z 23009KT 18/10 A3022 RMK A01 T01810103  RH  060%=      5-min Rain = 0
KTH1 091743Z 23007KT 18/10 A3022 RMK A01 T01830103  RH  059%=      5-min Rain = 0
KTH1 091744Z 23008KT 18/10 A3022 RMK A01 T01830102  RH  059%=      5-min Rain = 0
KTH1 091745Z 25011KT 18/10 A3022 RMK A01 T01830103  RH  060%=      5-min Rain = 0
KTH1 091746Z 24010KT 18/10 A3022 RMK A01 T01830102  RH  059%=      5-min Rain = 0
KTH1 091747Z 23009KT 18/10 A3022 RMK A01 T01820103  RH  060%=      5-min Rain = 0
KTH1 091748Z 23010KT 18/10 A3022 RMK A01 T01820103  RH  060%=      5-min Rain = 0
KTH1 091749Z 24008KT 18/10 A3022 RMK A01 T01830104  RH  060%=      5-min Rain = 0
KTH1 091750Z 24009KT 18/10 A3022 RMK A01 T01840104  RH  060%=      5-min Rain = 0
KTH1 091751Z 25011KT 18/11 A3021 RMK A01 T01840105  RH  060%=      5-min Rain = 0
KTH1 091752Z 24009KT 18/11 A3021 RMK A01 T01830105  RH  061%=      5-min Rain = 0
KTH1 091753Z 24008KT 18/11 A3021 RMK A01 T01830105  RH  060%=      5-min Rain = 0
KTH1 091754Z 22008KT 19/11 A3021 RMK A01 T01850105  RH  060%=      5-min Rain = 0
KTH1 091755Z 22009G15KT 19/11 A3021 RMK A01 T01870105  RH  059%=      5-min Rain = 0
KTH1 091756Z 24006KT 19/11 A3021 RMK A01 T01880105  RH  059%=      5-min Rain = 0
KTH1 091757Z 23007KT 19/11 A3021 RMK A01 T01900107  RH  059%=      5-min Rain = 0
KTH1 091758Z 23009KT 19/11 A3021 RMK A01 T01910105  RH  058%=      5-min Rain = 0
KTH1 091759Z 24010KT 19/11 A3021 RMK A01 T01900105  RH  058%=      5-min Rain = 0
KTH1 091800Z 24011KT 19/11 A3021 RMK A01 T01880105  RH  058%=      5-min Rain = 0
KTH1 091801Z 24012KT 19/11 A3021 RMK A01 T01870105  RH  059%=      5-min Rain = 0
KTH1 091802Z 24010KT 19/11 A3021 RMK A01 T01850105  RH  059%=      5-min Rain = 0
KTH1 091803Z 24009KT 19/11 A3021 RMK A01 T01850105  RH  060%=      5-min Rain = 0
KTH1 091804Z 24010KT 19/11 A302 RMK A01 T01860106  RH  060%=      5-min Rain = 0
KTH1 091805Z 23008KT 19/11 A302 RMK A01 T01880106  RH  059%=      5-min Rain = 0
KTH1 091806Z 23007KT 19/11 A302 RMK A01 T01900108  RH  059%=      5-min Rain = 0
KTH1 091807Z 24007KT 19/11 A302 RMK A01 T01920108  RH  058%=      5-min Rain = 0
KTH1 091808Z 24011KT 19/11 A302 RMK A01 T01930108  RH  058%=      5-min Rain = 0
KTH1 091809Z 24012KT 19/11 A302 RMK A01 T01920107  RH  058%=      5-min Rain = 0
KTH1 091810Z 23008G13KT 19/11 A302 RMK A01 T01910108  RH  058%=      5-min Rain = 0
KTH1 091811Z 24012KT 19/11 A302 RMK A01 T01910107  RH  058%=      5-min Rain = 0
KTH1 091812Z 24010KT 19/11 A302 RMK A01 T01910107  RH  058%=      5-min Rain = 0
KTH1 091813Z 24011KT 19/11 A302 RMK A01 T01900107  RH  059%=      5-min Rain = 0
KTH1 091814Z 25012KT 19/11 A302 RMK A01 T01900107  RH  059%=      5-min Rain = 0
KTH1 091815Z 23009KT 19/11 A302 RMK A01 T01890108  RH  059%=      5-min Rain = 0
KTH1 091816Z 22009G14KT 19/11 A302 RMK A01 T01900109  RH  059%=      5-min Rain = 0
KTH1 091817Z 23009KT 19/11 A302 RMK A01 T01920109  RH  058%=      5-min Rain = 0
KTH1 091818Z 23012KT 19/11 A302 RMK A01 T01940108  RH  057%=      5-min Rain = 0
KTH1 091819Z 24011KT 19/11 A3019 RMK A01 T01940108  RH  057%=      5-min Rain = 0
KTH1 091820Z 23012KT 19/11 A3019 RMK A01 T01930108  RH  058%=      5-min Rain = 0
KTH1 091821Z 24010KT 19/11 A3019 RMK A01 T01920108  RH  058%=      5-min Rain = 0
KTH1 091822Z 23009KT 19/11 A3019 RMK A01 T01920109  RH  058%=      5-min Rain = 0
KTH1 091823Z 22010G16KT 19/11 A3019 RMK A01 T01940110  RH  058%=      5-min Rain = 0
KTH1 091824Z 23009G14KT 20/11 A3019 RMK A01 T01960110  RH  058%=      5-min Rain = 0
KTH1 091825Z 23009G15KT 20/11 A3019 RMK A01 T01970110  RH  057%=      5-min Rain = 0
KTH1 091826Z 23013KT 20/11 A3019 RMK A01 T01970109  RH  057%=      5-min Rain = 0
KTH1 091827Z 23009KT 20/11 A3019 RMK A01 T01960109  RH  057%=      5-min Rain = 0
KTH1 091828Z 23010KT 20/11 A3019 RMK A01 T01960109  RH  057%=      5-min Rain = 0
KTH1 091829Z 23010KT 20/11 A3019 RMK A01 T01960109  RH  057%=      5-min Rain = 0
KTH1 091830Z 24010KT 20/11 A3019 RMK A01 T01960110  RH  057%=      5-min Rain = 0
KTH1 091831Z 25012KT 20/11 A3019 RMK A01 T01960110  RH  058%=      5-min Rain = 0
KTH1 091832Z 24010KT 20/11 A3019 RMK A01 T01950111  RH  058%=      5-min Rain = 0
KTH1 091833Z 24009KT 20/11 A3019 RMK A01 T01960111  RH  058%=      5-min Rain = 0
KTH1 091834Z 21010G15KT 20/11 A3019 RMK A01 T01960112  RH  058%=      5-min Rain = 0
KTH1 091835Z 23011G16KT 20/11 A3018 RMK A01 T01990112  RH  057%=      5-min Rain = 0
KTH1 091836Z 24011KT 20/11 A3018 RMK A01 T01990111  RH  057%=      5-min Rain = 0
KTH1 091837Z 23009KT 20/11 A3018 RMK A01 T01980112  RH  057%=      5-min Rain = 0
KTH1 091838Z 23010KT 20/11 A3018 RMK A01 T01980112  RH  057%=      5-min Rain = 0
KTH1 091839Z 23011KT 20/11 A3018 RMK A01 T01990111  RH  057%=      5-min Rain = 0
KTH1 091840Z 23010KT 20/11 A3018 RMK A01 T01990110  RH  056%=      5-min Rain = 0
KTH1 091841Z 23009KT 20/11 A3018 RMK A01 T01990111  RH  057%=      5-min Rain = 0
KTH1 091842Z 23011KT 20/11 A3018 RMK A01 T01990112  RH  057%=      5-min Rain = 0
KTH1 091843Z 23008KT 20/11 A3018 RMK A01 T02010112  RH  057%=      5-min Rain = 0
KTH1 091844Z 23008KT 20/11 A3018 RMK A01 T02010112  RH  056%=      5-min Rain = 0
KTH1 091845Z 24009KT 20/11 A3018 RMK A01 T02020112  RH  056%=      5-min Rain = 0
KTH1 091846Z 24008KT 20/11 A3018 RMK A01 T02020113  RH  057%=      5-min Rain = 0
KTH1 091847Z 22008KT 20/11 A3018 RMK A01 T02020112  RH  056%=      5-min Rain = 0
KTH1 091848Z 21006KT 20/11 A3017 RMK A01 T02030112  RH  056%=      5-min Rain = 0
KTH1 091849Z 22007KT 20/11 A3017 RMK A01 T02040113  RH  056%=      5-min Rain = 0
KTH1 091850Z 22009KT 21/11 A3017 RMK A01 T02060114  RH  055%=      5-min Rain = 0
KTH1 091851Z 24010KT 21/11 A3017 RMK A01 T02060113  RH  055%=      5-min Rain = 0
KTH1 091852Z 25009KT 21/11 A3017 RMK A01 T02050112  RH  055%=      5-min Rain = 0
KTH1 091853Z 24007KT 20/11 A3017 RMK A01 T02030114  RH  056%=      5-min Rain = 0
KTH1 091854Z 24010G16KT 20/11 A3017 RMK A01 T02010114  RH  057%=      5-min Rain = 0
KTH1 091855Z 24013KT 20/11 A3017 RMK A01 T02000113  RH  057%=      5-min Rain = 0
KTH1 091856Z 23010KT 20/11 A3017 RMK A01 T02000113  RH  057%=      5-min Rain = 0
KTH1 091857Z 24012KT 20/11 A3017 RMK A01 T02020113  RH  057%=      5-min Rain = 0
KTH1 091858Z 25010KT 20/11 A3017 RMK A01 T02020113  RH  057%=      5-min Rain = 0
KTH1 091859Z 25009KT 20/11 A3017 RMK A01 T02010113  RH  057%=      5-min Rain = 0
KTH1 091900Z 25010KT 20/12 A3017 RMK A01 T02000115  RH  058%=      5-min Rain = 0
KTH1 091901Z 25012KT 20/12 A3017 RMK A01 T02010116  RH  058%=      5-min Rain = 0
KTH1 091902Z 25011KT 20/12 A3017 RMK A01 T02020115  RH  057%=      5-min Rain = 0
KTH1 091903Z 25010KT 20/12 A3017 RMK A01 T02010115  RH  058%=      5-min Rain = 0
KTH1 091904Z 24009KT 20/12 A3017 RMK A01 T01990116  RH  059%=      5-min Rain = 0
KTH1 091905Z 23007KT 20/11 A3017 RMK A01 T01990114  RH  058%=      5-min Rain = 0
KTH1 091906Z 22006KT 20/11 A3017 RMK A01 T02020114  RH  057%=      5-min Rain = 0
KTH1 091907Z 23005KT 21/12 A3017 RMK A01 T02060116  RH  056%=      5-min Rain = 0
KTH1 091908Z 25009KT 21/12 A3016 RMK A01 T02080116  RH  055%=      5-min Rain = 0
KTH1 091909Z 25010KT 21/11 A3016 RMK A01 T02080114  RH  055%=      5-min Rain = 0
KTH1 091910Z 26011KT 21/12 A3016 RMK A01 T02050115  RH  056%=      5-min Rain = 0
KTH1 091911Z 24010KT 20/12 A3016 RMK A01 T02030115  RH  057%=      5-min Rain = 0
KTH1 091912Z 25011KT 20/12 A3016 RMK A01 T02020115  RH  057%=      5-min Rain = 0
KTH1 091913Z 25013KT 20/12 A3016 RMK A01 T02010115  RH  057%=      5-min Rain = 0
KTH1 091914Z 25011KT 20/12 A3016 RMK A01 T01980115  RH  059%=      5-min Rain = 0
KTH1 091915Z 25009KT 20/12 A3016 RMK A01 T01980116  RH  059%=      5-min Rain = 0
KTH1 091916Z 25008KT 20/11 A3016 RMK A01 T01960114  RH  059%=      5-min Rain = 0
KTH1 091917Z 24006KT 20/12 A3016 RMK A01 T01980115  RH  059%=      5-min Rain = 0
KTH1 091918Z 25009KT 20/12 A3016 RMK A01 T02010116  RH  058%=      5-min Rain = 0
KTH1 091919Z 24011KT 20/12 A3016 RMK A01 T02020115  RH  057%=      5-min Rain = 0
KTH1 091920Z 25011KT 20/12 A3016 RMK A01 T02000116  RH  058%=      5-min Rain = 0
KTH1 091921Z 25009KT 20/12 A3016 RMK A01 T02000115  RH  058%=      5-min Rain = 0
KTH1 091922Z 25009KT 20/12 A3016 RMK A01 T02020117  RH  058%=      5-min Rain = 0
KTH1 091923Z 25010KT 20/12 A3016 RMK A01 T02040116  RH  057%=      5-min Rain = 0
KTH1 091924Z 23011KT 20/12 A3016 RMK A01 T02030115  RH  057%=      5-min Rain = 0
KTH1 091925Z 24007KT 20/12 A3016 RMK A01 T02030115  RH  057%=      5-min Rain = 0
KTH1 091926Z 24009KT 21/11 A3016 RMK A01 T02050114  RH  056%=      5-min Rain = 0
KTH1 091927Z 24011KT 21/12 A3016 RMK A01 T02060115  RH  056%=      5-min Rain = 0
KTH1 091928Z 24008KT 21/12 A3016 RMK A01 T02060116  RH  056%=      5-min Rain = 0
KTH1 091929Z 24007KT 21/12 A3015 RMK A01 T02070115  RH  056%=      5-min Rain = 0
KTH1 091930Z 26011KT 21/12 A3015 RMK A01 T02080116  RH  055%=      5-min Rain = 0
KTH1 091931Z 26010KT 21/12 A3015 RMK A01 T02080115  RH  055%=      5-min Rain = 0
KTH1 091932Z 25012KT 21/11 A3015 RMK A01 T02050114  RH  056%=      5-min Rain = 0
KTH1 091933Z 24012KT 20/11 A3015 RMK A01 T02030114  RH  056%=      5-min Rain = 0
KTH1 091934Z 24010KT 20/12 A3015 RMK A01 T02020115  RH  057%=      5-min Rain = 0
KTH1 091935Z 24008KT 20/11 A3015 RMK A01 T02040114  RH  056%=      5-min Rain = 0
KTH1 091936Z 24008KT 21/12 A3015 RMK A01 T02060116  RH  056%=      5-min Rain = 0
KTH1 091937Z 24010KT 21/12 A3015 RMK A01 T02080117  RH  056%=      5-min Rain = 0
KTH1 091938Z 23010KT 21/12 A3015 RMK A01 T02090116  RH  055%=      5-min Rain = 0
KTH1 091939Z 24008KT 21/12 A3015 RMK A01 T02090115  RH  055%=      5-min Rain = 0
KTH1 091940Z 23007KT 21/12 A3015 RMK A01 T02090115  RH  055%=      5-min Rain = 0
KTH1 091941Z 24006KT 21/12 A3015 RMK A01 T02100117  RH  055%=      5-min Rain = 0
KTH1 091942Z 23008KT 21/12 A3015 RMK A01 T02110116  RH  055%=      5-min Rain = 0
KTH1 091943Z 24006KT 21/12 A3015 RMK A01 T02110116  RH  054%=      5-min Rain = 0
KTH1 091944Z 25006KT 21/12 A3015 RMK A01 T02120118  RH  055%=      5-min Rain = 0
KTH1 091945Z 25008KT 21/12 A3015 RMK A01 T02130117  RH  054%=      5-min Rain = 0
KTH1 091946Z 25010KT 21/12 A3015 RMK A01 T02110116  RH  055%=      5-min Rain = 0
KTH1 091947Z 25012KT 21/12 A3015 RMK A01 T02090115  RH  055%=      5-min Rain = 0
KTH1 091948Z 24011KT 21/11 A3015 RMK A01 T02080113  RH  055%=      5-min Rain = 0
KTH1 091949Z 25010KT 21/11 A3015 RMK A01 T02060112  RH  055%=      5-min Rain = 0
KTH1 091950Z 26014KT 21/11 A3014 RMK A01 T02060114  RH  055%=      5-min Rain = 0
KTH1 091951Z 25013KT 21/11 A3014 RMK A01 T02060114  RH  055%=      5-min Rain = 0
KTH1 091952Z 25012KT 21/11 A3014 RMK A01 T02050114  RH  056%=      5-min Rain = 0
KTH1 091953Z 26013KT 21/11 A3014 RMK A01 T02050114  RH  056%=      5-min Rain = 0
KTH1 091954Z 25014KT 20/11 A3014 RMK A01 T02040114  RH  056%=      5-min Rain = 0
KTH1 091955Z 26013KT 20/11 A3014 RMK A01 T02030114  RH  056%=      5-min Rain = 0
KTH1 091956Z 25011KT 20/12 A3014 RMK A01 T02030115  RH  057%=      5-min Rain = 0
KTH1 091957Z 25010KT 20/12 A3014 RMK A01 T02020115  RH  057%=      5-min Rain = 0
KTH1 091958Z 26012KT 20/11 A3014 RMK A01 T02020114  RH  057%=      5-min Rain = 0
KTH1 091959Z 26011KT 20/12 A3014 RMK A01 T02040115  RH  057%=      5-min Rain = 0
KTH1 092000Z 26011KT 21/12 A3014 RMK A01 T02050115  RH  056%=      5-min Rain = 0
KTH1 092001Z 26011KT 21/12 A3014 RMK A01 T02060115  RH  056%=      5-min Rain = 0
KTH1 092002Z 25009KT 21/12 A3014 RMK A01 T02070115  RH  055%=      5-min Rain = 0
KTH1 092003Z 26010KT 21/11 A3014 RMK A01 T02060114  RH  056%=      5-min Rain = 0
KTH1 092004Z 25010KT 20/11 A3014 RMK A01 T02040113  RH  056%=      5-min Rain = 0
KTH1 092005Z 24008KT 20/11 A3014 RMK A01 T02040114  RH  056%=      5-min Rain = 0
KTH1 092006Z 24008KT 21/12 A3014 RMK A01 T02060115  RH  056%=      5-min Rain = 0
KTH1 092007Z 23007KT 21/12 A3014 RMK A01 T02090115  RH  055%=      5-min Rain = 0
KTH1 092008Z 24006KT 21/12 A3014 RMK A01 T02110115  RH  054%=      5-min Rain = 0
KTH1 092009Z 24006KT 21/12 A3014 RMK A01 T02130116  RH  054%=      5-min Rain = 0
KTH1 092010Z 24005KT 21/12 A3014 RMK A01 T02140116  RH  053%=      5-min Rain = 0
KTH1 092011Z 23005KT 21/12 A3014 RMK A01 T02140116  RH  053%=      5-min Rain = 0
KTH1 092012Z 22004KT 22/12 A3014 RMK A01 T02160117  RH  053%=      5-min Rain = 0
KTH1 092013Z 20007KT 22/12 A3014 RMK A01 T02180116  RH  052%=      5-min Rain = 0
KTH1 092014Z 21008G14KT 22/12 A3014 RMK A01 T02220115  RH  051%=      5-min Rain = 0
KTH1 092015Z 23006KT 23/12 A3014 RMK A01 T02250115  RH  050%=      5-min Rain = 0
KTH1 092016Z 22006KT 23/11 A3014 RMK A01 T02250114  RH  050%=      5-min Rain = 0
KTH1 092017Z 23005KT 22/11 A3014 RMK A01 T02220114  RH  050%=      5-min Rain = 0
KTH1 092018Z 21006KT 22/11 A3014 RMK A01 T02220114  RH  051%=      5-min Rain = 0
KTH1 092019Z 21009KT 22/11 A3014 RMK A01 T02240114  RH  050%=      5-min Rain = 0
KTH1 092020Z 22007KT 23/11 A3014 RMK A01 T02270113  RH  048%=      5-min Rain = 0
KTH1 092021Z 22007KT 23/11 A3014 RMK A01 T02270112  RH  048%=      5-min Rain = 0
KTH1 092022Z 21010KT 23/11 A3014 RMK A01 T02270111  RH  048%=      5-min Rain = 0
KTH1 092023Z 24009KT 23/11 A3014 RMK A01 T02270111  RH  048%=      5-min Rain = 0
KTH1 092024Z 23009KT 23/11 A3014 RMK A01 T02270112  RH  048%=      5-min Rain = 0
KTH1 092025Z 24008KT 23/11 A3014 RMK A01 T02250111  RH  049%=      5-min Rain = 0
KTH1 092026Z 24007KT 22/11 A3013 RMK A01 T02230111  RH  049%=      5-min Rain = 0
KTH1 092027Z 23009KT 22/11 A3013 RMK A01 T02220113  RH  050%=      5-min Rain = 0
KTH1 092028Z 22009KT 22/11 A3013 RMK A01 T02230112  RH  049%=      5-min Rain = 0
KTH1 092029Z 23010KT 23/11 A3013 RMK A01 T02250112  RH  049%=      5-min Rain = 0
KTH1 092030Z 23006KT 23/11 A3013 RMK A01 T02250111  RH  049%=      5-min Rain = 0
KTH1 092031Z 22007KT 22/11 A3013 RMK A01 T02240112  RH  049%=      5-min Rain = 0
KTH1 092032Z 22007KT 22/11 A3013 RMK A01 T02240112  RH  049%=      5-min Rain = 0
KTH1 092033Z 23006KT 23/11 A3013 RMK A01 T02270113  RH  049%=      5-min Rain = 0
KTH1 092034Z 23008KT 23/11 A3013 RMK A01 T02280113  RH  048%=      5-min Rain = 0
KTH1 092035Z 23006KT 23/11 A3013 RMK A01 T02270111  RH  048%=      5-min Rain = 0
KTH1 092036Z 24007KT 23/11 A3013 RMK A01 T02260112  RH  049%=      5-min Rain = 0
KTH1 092037Z 25007KT 23/11 A3013 RMK A01 T02250113  RH  049%=      5-min Rain = 0
KTH1 092038Z 24006KT 22/11 A3013 RMK A01 T02230113  RH  050%=      5-min Rain = 0
KTH1 092039Z 24005KT 22/11 A3013 RMK A01 T02220112  RH  050%=      5-min Rain = 0
KTH1 092040Z 24008KT 22/11 A3013 RMK A01 T02210112  RH  050%=      5-min Rain = 0
KTH1 092041Z 24009KT 22/11 A3013 RMK A01 T02200111  RH  050%=      5-min Rain = 0
KTH1 092042Z 23007KT 22/11 A3013 RMK A01 T02190112  RH  050%=      5-min Rain = 0
KTH1 092043Z 23005KT 22/11 A3013 RMK A01 T02200112  RH  051%=      5-min Rain = 0
KTH1 092044Z 23008KT 22/11 A3013 RMK A01 T02210113  RH  050%=      5-min Rain = 0
KTH1 092045Z 22008KT 22/11 A3013 RMK A01 T02240112  RH  049%=      5-min Rain = 0
KTH1 092046Z 20009KT 23/11 A3013 RMK A01 T02260112  RH  049%=      5-min Rain = 0
KTH1 092047Z 20006KT 23/11 A3013 RMK A01 T02260111  RH  048%=      5-min Rain = 0
KTH1 092048Z 21006KT 23/11 A3013 RMK A01 T02260111  RH  048%=      5-min Rain = 0
KTH1 092049Z 22006KT 23/11 A3013 RMK A01 T02250111  RH  048%=      5-min Rain = 0
KTH1 092050Z 22011KT 23/11 A3013 RMK A01 T02250111  RH  048%=      5-min Rain = 0
KTH1 092051Z 21009KT 23/11 A3013 RMK A01 T02260110  RH  048%=      5-min Rain = 0
KTH1 092052Z 22008KT 23/11 A3013 RMK A01 T02260110  RH  048%=      5-min Rain = 0
KTH1 092053Z 22007KT 23/11 A3013 RMK A01 T02270109  RH  047%=      5-min Rain = 0
KTH1 092054Z 21007KT 23/11 A3013 RMK A01 T02270109  RH  047%=      5-min Rain = 0
KTH1 092055Z 22005KT 23/11 A3013 RMK A01 T02280110  RH  047%=      5-min Rain = 0
KTH1 092056Z 21007KT 23/11 A3013 RMK A01 T02300110  RH  047%=      5-min Rain = 0
KTH1 092057Z 23008KT 23/11 A3013 RMK A01 T02310110  RH  046%=      5-min Rain = 0
KTH1 092058Z 23006KT 23/11 A3013 RMK A01 T02290110  RH  047%=      5-min Rain = 0
KTH1 092059Z 24008KT 23/11 A3013 RMK A01 T02260110  RH  048%=      5-min Rain = 0
KTH1 092100Z 25008KT 22/11 A3012 RMK A01 T02240109  RH  048%=      5-min Rain = 0
KTH1 092101Z 24007KT 22/11 A3012 RMK A01 T02230111  RH  049%=      5-min Rain = 0
KTH1 092102Z 24007KT 22/11 A3012 RMK A01 T02230111  RH  049%=      5-min Rain = 0
KTH1 092103Z 24007KT 22/11 A3012 RMK A01 T02230110  RH  049%=      5-min Rain = 0
KTH1 092104Z 24008KT 22/11 A3012 RMK A01 T02240110  RH  048%=      5-min Rain = 0
KTH1 092105Z 23008KT 23/11 A3012 RMK A01 T02250108  RH  048%=      5-min Rain = 0
KTH1 092106Z 21006KT 22/11 A3012 RMK A01 T02240105  RH  047%=      5-min Rain = 0
KTH1 092107Z 21007KT 23/11 A3012 RMK A01 T02270107  RH  047%=      5-min Rain = 0
KTH1 092108Z 23005KT 23/11 A3012 RMK A01 T02290107  RH  046%=      5-min Rain = 0
KTH1 092109Z 24008KT 23/11 A3012 RMK A01 T02310106  RH  045%=      5-min Rain = 0
KTH1 092110Z 21009KT 23/11 A3012 RMK A01 T02310107  RH  046%=      5-min Rain = 0
KTH1 092111Z 22009KT 23/11 A3012 RMK A01 T02300107  RH  046%=      5-min Rain = 0
KTH1 092112Z 22010KT 23/11 A3012 RMK A01 T02300107  RH  046%=      5-min Rain = 0
KTH1 092113Z 23007KT 23/11 A3012 RMK A01 T02300107  RH  046%=      5-min Rain = 0
KTH1 092114Z 24008KT 23/11 A3012 RMK A01 T02290106  RH  046%=      5-min Rain = 0
KTH1 092115Z 24008KT 23/11 A3012 RMK A01 T02280106  RH  046%=      5-min Rain = 0
KTH1 092116Z 24008KT 23/11 A3012 RMK A01 T02270106  RH  046%=      5-min Rain = 0
KTH1 092117Z 25009KT 23/11 A3012 RMK A01 T02260108  RH  047%=      5-min Rain = 0
KTH1 092118Z 21007KT 22/11 A3012 RMK A01 T02220107  RH  048%=      5-min Rain = 0
KTH1 092119Z 24006KT 22/11 A3012 RMK A01 T02220107  RH  048%=      5-min Rain = 0
KTH1 092120Z 24005KT 22/11 A3012 RMK A01 T02230108  RH  048%=      5-min Rain = 0
KTH1 092121Z 23006KT 22/11 A3012 RMK A01 T02240109  RH  048%=      5-min Rain = 0
KTH1 092122Z 22006KT 22/11 A3012 RMK A01 T02240107  RH  047%=      5-min Rain = 0
KTH1 092123Z 22006G12KT 23/11 A3012 RMK A01 T02260108  RH  047%=      5-min Rain = 0
KTH1 092124Z 21008KT 23/11 A3011 RMK A01 T02270107  RH  047%=      5-min Rain = 0
KTH1 092125Z 22008KT 23/11 A3011 RMK A01 T02270106  RH  046%=      5-min Rain = 0
KTH1 092126Z 22007KT 23/11 A3011 RMK A01 T02270106  RH  046%=      5-min Rain = 0
KTH1 092127Z 20006KT 23/11 A3011 RMK A01 T02270107  RH  047%=      5-min Rain = 0
KTH1 092128Z 19006KT 23/11 A3011 RMK A01 T02270106  RH  046%=      5-min Rain = 0
KTH1 092129Z 20007KT 23/11 A3011 RMK A01 T02280106  RH  046%=      5-min Rain = 0
KTH1 092130Z 20008KT 23/11 A3011 RMK A01 T02290106  RH  046%=      5-min Rain = 0
KTH1 092131Z 24007G12KT 23/11 A3011 RMK A01 T02300108  RH  046%=      5-min Rain = 0
KTH1 092132Z 23006KT 23/11 A3011 RMK A01 T02300110  RH  047%=      5-min Rain = 0
KTH1 092133Z 24006KT 23/11 A3011 RMK A01 T02270109  RH  047%=      5-min Rain = 0
KTH1 092134Z 24009KT 23/11 A3011 RMK A01 T02270108  RH  047%=      5-min Rain = 0
KTH1 092135Z 24009KT 23/11 A3011 RMK A01 T02250107  RH  047%=      5-min Rain = 0
KTH1 092136Z 23008KT 22/11 A3011 RMK A01 T02240107  RH  047%=      5-min Rain = 0
KTH1 092137Z 23008KT 22/11 A3011 RMK A01 T02240107  RH  047%=      5-min Rain = 0
KTH1 092138Z 23008KT 23/11 A3011 RMK A01 T02250106  RH  047%=      5-min Rain = 0
KTH1 092139Z 21008KT 23/11 A3011 RMK A01 T02260106  RH  046%=      5-min Rain = 0
KTH1 092140Z 20008KT 23/10 A3011 RMK A01 T02270104  RH  046%=      5-min Rain = 0
KTH1 092141Z 20008KT 23/11 A3011 RMK A01 T02270105  RH  046%=      5-min Rain = 0
KTH1 092142Z 22007KT 23/11 A3011 RMK A01 T02290106  RH  046%=      5-min Rain = 0
KTH1 092143Z 23006KT 23/10 A3011 RMK A01 T02300104  RH  045%=      5-min Rain = 0
KTH1 092144Z 23007KT 23/11 A3011 RMK A01 T02310105  RH  045%=      5-min Rain = 0
KTH1 092145Z 22007KT 23/11 A3011 RMK A01 T02300106  RH  045%=      5-min Rain = 0
KTH1 092146Z 22007KT 23/11 A3011 RMK A01 T02290106  RH  046%=      5-min Rain = 0
KTH1 092147Z 22004KT 23/11 A3011 RMK A01 T02290105  RH  046%=      5-min Rain = 0
KTH1 092148Z 24005KT 23/11 A3011 RMK A01 T02300105  RH  045%=      5-min Rain = 0
KTH1 092149Z 24005KT 23/11 A3011 RMK A01 T02290105  RH  045%=      5-min Rain = 0
KTH1 092150Z 23004KT 23/11 A3011 RMK A01 T02290107  RH  046%=      5-min Rain = 0
KTH1 092151Z 22004KT 23/11 A3011 RMK A01 T02290107  RH  046%=      5-min Rain = 0
KTH1 092152Z 21008KT 23/10 A3011 RMK A01 T02290104  RH  045%=      5-min Rain = 0
KTH1 092153Z 22009KT 23/10 A3011 RMK A01 T02300103  RH  045%=      5-min Rain = 0
KTH1 092154Z 23008KT 23/10 A3011 RMK A01 T02300103  RH  045%=      5-min Rain = 0
KTH1 092155Z 24007KT 23/10 A3011 RMK A01 T02290103  RH  045%=      5-min Rain = 0
KTH1 092156Z 22005KT 23/10 A3011 RMK A01 T02280103  RH  045%=      5-min Rain = 0
KTH1 092157Z 21006KT 23/10 A3011 RMK A01 T02290103  RH  045%=      5-min Rain = 0
KTH1 092158Z 21007KT 23/11 A3011 RMK A01 T02290106  RH  046%=      5-min Rain = 0
KTH1 092159Z 21006KT 23/11 A3011 RMK A01 T02280105  RH  046%=      5-min Rain = 0
KTH1 092200Z 20007KT 23/10 A301 RMK A01 T02280104  RH  045%=      5-min Rain = 0
KTH1 092201Z 21008KT 23/10 A301 RMK A01 T02280102  RH  045%=      5-min Rain = 0
KTH1 092202Z 22005KT 23/10 A301 RMK A01 T02280103  RH  045%=      5-min Rain = 0
KTH1 092203Z 23006KT 23/10 A301 RMK A01 T02280103  RH  045%=      5-min Rain = 0
KTH1 092204Z 24006KT 23/10 A301 RMK A01 T02290102  RH  045%=      5-min Rain = 0
KTH1 092205Z 21007KT 23/10 A301 RMK A01 T02280102  RH  045%=      5-min Rain = 0
KTH1 092206Z 23006KT 23/10 A301 RMK A01 T02280102  RH  045%=      5-min Rain = 0
KTH1 092207Z 23006G11KT 23/10 A301 RMK A01 T02280103  RH  045%=      5-min Rain = 0
KTH1 092208Z 24009KT 23/10 A301 RMK A01 T02280102  RH  045%=      5-min Rain = 0
KTH1 092209Z 23008KT 23/10 A301 RMK A01 T02270102  RH  045%=      5-min Rain = 0
KTH1 092210Z 23006KT 23/10 A301 RMK A01 T02260102  RH  045%=      5-min Rain = 0
KTH1 092211Z 22009KT 23/10 A301 RMK A01 T02260102  RH  045%=      5-min Rain = 0
KTH1 092212Z 21009KT 23/10 A301 RMK A01 T02260102  RH  045%=      5-min Rain = 0
KTH1 092213Z 21008KT 23/10 A301 RMK A01 T02260102  RH  045%=      5-min Rain = 0
KTH1 092214Z 21007KT 23/10 A301 RMK A01 T02260102  RH  045%=      5-min Rain = 0
KTH1 092215Z 21006KT 23/10 A301 RMK A01 T02260103  RH  046%=      5-min Rain = 0
KTH1 092216Z 22007KT 23/10 A301 RMK A01 T02260102  RH  045%=      5-min Rain = 0
KTH1 092217Z 24006KT 23/10 A301 RMK A01 T02270101  RH  045%=      5-min Rain = 0
KTH1 092218Z 23008KT 23/10 A301 RMK A01 T02260103  RH  046%=      5-min Rain = 0
KTH1 092219Z 23008KT 23/10 A301 RMK A01 T02260101  RH  045%=      5-min Rain = 0
KTH1 092220Z 23007KT 23/10 A301 RMK A01 T02260101  RH  045%=      5-min Rain = 0
KTH1 092221Z 24007KT 23/10 A301 RMK A01 T02250102  RH  045%=      5-min Rain = 0
KTH1 092222Z 23008KT 23/10 A301 RMK A01 T02250101  RH  045%=      5-min Rain = 0
KTH1 092223Z 23006KT 22/10 A301 RMK A01 T02240101  RH  046%=      5-min Rain = 0
KTH1 092224Z 23006KT 22/10 A301 RMK A01 T02240102  RH  046%=      5-min Rain = 0
KTH1 092225Z 24005KT 22/10 A301 RMK A01 T02240102  RH  046%=      5-min Rain = 0
KTH1 092226Z 24006KT 22/10 A301 RMK A01 T02240103  RH  046%=      5-min Rain = 0
KTH1 092227Z 23007KT 22/10 A301 RMK A01 T02240104  RH  046%=      5-min Rain = 0
KTH1 092228Z 23007KT 22/10 A301 RMK A01 T02240103  RH  046%=      5-min Rain = 0
KTH1 092229Z 23004KT 22/10 A301 RMK A01 T02230103  RH  046%=      5-min Rain = 0
KTH1 092230Z 22005KT 22/10 A301 RMK A01 T02230104  RH  047%=      5-min Rain = 0
KTH1 092231Z 23005KT 22/11 A301 RMK A01 T02230105  RH  047%=      5-min Rain = 0
KTH1 092232Z 24004KT 22/11 A3009 RMK A01 T02230106  RH  047%=      5-min Rain = 0
KTH1 092233Z 24005KT 22/11 A3009 RMK A01 T02230107  RH  048%=      5-min Rain = 0
KTH1 092234Z 24005KT 22/11 A3009 RMK A01 T02230107  RH  048%=      5-min Rain = 0
KTH1 092235Z 24005KT 22/11 A301 RMK A01 T02230107  RH  048%=      5-min Rain = 0
KTH1 092236Z 23006KT 22/11 A301 RMK A01 T02220106  RH  048%=      5-min Rain = 0
KTH1 092237Z 23006KT 22/11 A301 RMK A01 T02220105  RH  047%=      5-min Rain = 0
KTH1 092238Z 24004KT 22/11 A301 RMK A01 T02220106  RH  048%=      5-min Rain = 0
KTH1 092239Z 22006KT 22/11 A301 RMK A01 T02230107  RH  048%=      5-min Rain = 0
KTH1 092240Z 23004KT 22/11 A301 RMK A01 T02230106  RH  047%=      5-min Rain = 0
KTH1 092241Z 23006KT 22/11 A301 RMK A01 T02230107  RH  048%=      5-min Rain = 0
KTH1 092242Z 23006KT 22/11 A301 RMK A01 T02230107  RH  048%=      5-min Rain = 0
KTH1 092243Z 23007KT 22/11 A301 RMK A01 T02230107  RH  048%=      5-min Rain = 0
KTH1 092244Z 23006KT 22/11 A301 RMK A01 T02230107  RH  048%=      5-min Rain = 0
KTH1 092245Z 23004KT 22/11 A301 RMK A01 T02220106  RH  048%=      5-min Rain = 0
KTH1 092246Z 23006KT 22/11 A301 RMK A01 T02220107  RH  048%=      5-min Rain = 0
KTH1 092247Z 23005KT 22/11 A301 RMK A01 T02230107  RH  048%=      5-min Rain = 0
KTH1 092248Z 23004KT 22/11 A301 RMK A01 T02220107  RH  048%=      5-min Rain = 0
KTH1 092249Z 22004KT 22/11 A301 RMK A01 T02220108  RH  048%=      5-min Rain = 0
KTH1 092250Z 23005KT 22/11 A301 RMK A01 T02220107  RH  048%=      5-min Rain = 0
KTH1 092251Z 24004KT 22/11 A301 RMK A01 T02220108  RH  048%=      5-min Rain = 0
KTH1 092252Z 24005KT 22/11 A301 RMK A01 T02220109  RH  049%=      5-min Rain = 0
KTH1 092253Z 24005KT 22/11 A301 RMK A01 T02210109  RH  049%=      5-min Rain = 0
KTH1 092254Z 24005KT 22/11 A301 RMK A01 T02200109  RH  049%=      5-min Rain = 0
KTH1 092255Z 24005KT 22/11 A301 RMK A01 T02190109  RH  050%=      5-min Rain = 0
KTH1 092256Z 23004KT 22/11 A301 RMK A01 T02180109  RH  050%=      5-min Rain = 0
KTH1 092257Z 23004KT 22/11 A301 RMK A01 T02180108  RH  050%=      5-min Rain = 0
KTH1 092258Z 24003KT 22/11 A301 RMK A01 T02180108  RH  049%=      5-min Rain = 0
KTH1 092259Z 23003KT 22/11 A301 RMK A01 T02180108  RH  049%=      5-min Rain = 0
KTH1 092300Z 24003KT 22/11 A301 RMK A01 T02180108  RH  049%=      5-min Rain = 0
KTH1 092301Z 24005KT 22/11 A301 RMK A01 T02180107  RH  049%=      5-min Rain = 0
KTH1 092302Z 23003KT 22/11 A301 RMK A01 T02190108  RH  049%=      5-min Rain = 0
KTH1 092303Z 23005KT 22/11 A301 RMK A01 T02190108  RH  049%=      5-min Rain = 0
KTH1 092304Z 23005KT 22/11 A301 RMK A01 T02180107  RH  049%=      5-min Rain = 0
KTH1 092305Z 23003KT 22/11 A301 RMK A01 T02180108  RH  049%=      5-min Rain = 0
KTH1 092306Z 23003KT 22/11 A301 RMK A01 T02180108  RH  050%=      5-min Rain = 0
KTH1 092307Z 22003KT 22/11 A301 RMK A01 T02180108  RH  050%=      5-min Rain = 0
KTH1 092308Z 23004KT 22/11 A301 RMK A01 T02170108  RH  050%=      5-min Rain = 0
KTH1 092309Z 23004KT 22/11 A301 RMK A01 T02170108  RH  050%=      5-min Rain = 0
KTH1 092310Z 22003KT 22/11 A301 RMK A01 T02170108  RH  050%=      5-min Rain = 0
KTH1 092311Z 23003KT 22/11 A301 RMK A01 T02160108  RH  050%=      5-min Rain = 0
KTH1 092312Z 24002KT 22/11 A301 RMK A01 T02160109  RH  050%=      5-min Rain = 0
KTH1 092313Z 23002KT 22/11 A301 RMK A01 T02160109  RH  050%=      5-min Rain = 0
KTH1 092314Z 23003KT 22/11 A301 RMK A01 T02150109  RH  051%=      5-min Rain = 0
KTH1 092315Z 23003KT 21/11 A301 RMK A01 T02140108  RH  051%=      5-min Rain = 0
KTH1 092316Z 22003KT 21/11 A301 RMK A01 T02130108  RH  051%=      5-min Rain = 0
KTH1 092317Z 23003KT 21/11 A301 RMK A01 T02130108  RH  051%=      5-min Rain = 0
KTH1 092318Z 23003KT 21/11 A301 RMK A01 T02120108  RH  051%=      5-min Rain = 0
KTH1 092319Z 22002KT 21/11 A301 RMK A01 T02110108  RH  052%=      5-min Rain = 0
KTH1 092320Z 23003KT 21/11 A301 RMK A01 T02110108  RH  052%=      5-min Rain = 0
KTH1 092321Z 23003KT 21/11 A301 RMK A01 T02110109  RH  052%=      5-min Rain = 0
KTH1 092322Z 23003KT 21/11 A301 RMK A01 T02100109  RH  052%=      5-min Rain = 0
KTH1 092323Z 22003KT 21/11 A301 RMK A01 T02100109  RH  052%=      5-min Rain = 0
KTH1 092324Z 22004KT 21/11 A301 RMK A01 T02090109  RH  053%=      5-min Rain = 0
KTH1 092325Z 22004KT 21/11 A301 RMK A01 T02070109  RH  053%=      5-min Rain = 0
KTH1 092326Z 22004KT 21/11 A301 RMK A01 T02060109  RH  054%=      5-min Rain = 0
KTH1 092327Z 22003KT 21/11 A301 RMK A01 T02050109  RH  054%=      5-min Rain = 0
KTH1 092328Z 22004KT 21/11 A301 RMK A01 T02050109  RH  054%=      5-min Rain = 0
KTH1 092329Z 22003KT 20/11 A301 RMK A01 T02040109  RH  054%=      5-min Rain = 0
KTH1 092330Z 21004KT 20/11 A301 RMK A01 T02030109  RH  055%=      5-min Rain = 0
KTH1 092331Z 21004KT 20/11 A301 RMK A01 T02020109  RH  055%=      5-min Rain = 0
KTH1 092332Z 21004KT 20/11 A301 RMK A01 T02010109  RH  055%=      5-min Rain = 0
KTH1 092333Z 21004KT 20/11 A301 RMK A01 T02000109  RH  056%=      5-min Rain = 0
KTH1 092334Z 21004KT 20/11 A301 RMK A01 T01990109  RH  056%=      5-min Rain = 0
KTH1 092335Z 21004KT 20/11 A301 RMK A01 T01990109  RH  056%=      5-min Rain = 0
KTH1 092336Z 21005KT 20/11 A301 RMK A01 T01980109  RH  056%=      5-min Rain = 0
KTH1 092337Z 21005KT 20/11 A301 RMK A01 T01970109  RH  057%=      5-min Rain = 0
KTH1 092338Z 21005KT 20/11 A3009 RMK A01 T01970109  RH  057%=      5-min Rain = 0
KTH1 092339Z 21005KT 20/11 A3009 RMK A01 T01960109  RH  057%=      5-min Rain = 0
KTH1 092340Z 21005KT 20/11 A3009 RMK A01 T01950109  RH  057%=      5-min Rain = 0
KTH1 092341Z 21005KT 19/11 A3009 RMK A01 T01940109  RH  058%=      5-min Rain = 0
KTH1 092342Z 21005KT 19/11 A3009 RMK A01 T01930109  RH  058%=      5-min Rain = 0
KTH1 092343Z 22005KT 19/11 A3009 RMK A01 T01920109  RH  058%=      5-min Rain = 0
KTH1 092344Z 21005KT 19/11 A3009 RMK A01 T01910109  RH  059%=      5-min Rain = 0
KTH1 092345Z 21005KT 19/11 A3009 RMK A01 T01900108  RH  059%=      5-min Rain = 0
KTH1 092346Z 22005KT 19/11 A3009 RMK A01 T01900108  RH  059%=      5-min Rain = 0
KTH1 092347Z 21005KT 19/11 A3009 RMK A01 T01890108  RH  059%=      5-min Rain = 0
KTH1 092348Z 21005KT 19/11 A3009 RMK A01 T01890108  RH  059%=      5-min Rain = 0
KTH1 092349Z 21005KT 19/11 A3009 RMK A01 T01880108  RH  059%=      5-min Rain = 0
KTH1 092350Z 21005KT 19/11 A3009 RMK A01 T01880108  RH  060%=      5-min Rain = 0
KTH1 092351Z 21006KT 19/11 A3009 RMK A01 T01870108  RH  060%=      5-min Rain = 0
KTH1 092352Z 21005KT 19/11 A3009 RMK A01 T01870108  RH  060%=      5-min Rain = 0
KTH1 092353Z 21006KT 19/11 A3009 RMK A01 T01860108  RH  060%=      5-min Rain = 0
KTH1 092354Z 21005KT 19/11 A3009 RMK A01 T01860108  RH  060%=      5-min Rain = 0
KTH1 092355Z 21004KT 19/11 A3009 RMK A01 T01850108  RH  061%=      5-min Rain = 0
KTH1 092356Z 21005KT 18/11 A3009 RMK A01 T01830108  RH  062%=      5-min Rain = 0
KTH1 092357Z 21005KT 18/11 A3009 RMK A01 T01810108  RH  062%=      5-min Rain = 0
KTH1 092358Z 21006KT 18/11 A3009 RMK A01 T01800107  RH  063%=      5-min Rain = 0
KTH1 092359Z 21005KT 18/11 A3009 RMK A01 T01790107  RH  063%=      5-min Rain = 0
KTH1 100000Z 21006KT 18/11 A3009 RMK A01 T01790107  RH  063%=      5-min Rain = 0
KTH1 100001Z 21006KT 18/11 A3009 RMK A01 T01800107  RH  062%=      5-min Rain = 0
KTH1 100002Z 21007KT 18/11 A3009 RMK A01 T01810107  RH  062%=      5-min Rain = 0
KTH1 100003Z 21006KT 18/11 A3009 RMK A01 T01820107  RH  062%=      5-min Rain = 0
KTH1 100004Z 21006KT 18/11 A3009 RMK A01 T01820107  RH  062%=      5-min Rain = 0
KTH1 100005Z 21006KT 18/11 A3009 RMK A01 T01820107  RH  062%=      5-min Rain = 0
KTH1 100006Z 21006KT 18/11 A3009 RMK A01 T01820107  RH  062%=      5-min Rain = 0
KTH1 100007Z 21006KT 18/11 A3009 RMK A01 T01820107  RH  061%=      5-min Rain = 0
KTH1 100008Z 21006KT 18/11 A3009 RMK A01 T01820107  RH  061%=      5-min Rain = 0
KTH1 100009Z 21006KT 18/11 A3009 RMK A01 T01820107  RH  062%=      5-min Rain = 0
KTH1 100010Z 21005KT 18/11 A3009 RMK A01 T01810107  RH  062%=      5-min Rain = 0
KTH1 100011Z 21005KT 18/11 A3009 RMK A01 T01800107  RH  062%=      5-min Rain = 0
KTH1 100012Z 21005KT 18/11 A3009 RMK A01 T01790107  RH  063%=      5-min Rain = 0
KTH1 100013Z 21006KT 18/11 A3009 RMK A01 T01780107  RH  063%=      5-min Rain = 0
KTH1 100014Z 21005KT 18/11 A3009 RMK A01 T01770107  RH  063%=      5-min Rain = 0
KTH1 100015Z 21005KT 17/11 A3009 RMK A01 T01740107  RH  065%=      5-min Rain = 0
KTH1 100016Z 21005KT 17/11 A3009 RMK A01 T01710106  RH  066%=      5-min Rain = 0
KTH1 100017Z 21005KT 17/11 A3009 RMK A01 T01670106  RH  067%=      5-min Rain = 0
KTH1 100018Z 21005KT 16/11 A3009 RMK A01 T01640105  RH  068%=      5-min Rain = 0
KTH1 100019Z 21006KT 16/11 A3009 RMK A01 T01630105  RH  068%=      5-min Rain = 0
KTH1 100020Z 20006KT 16/11 A3009 RMK A01 T01630105  RH  068%=      5-min Rain = 0
KTH1 100021Z 20006KT 17/11 A3009 RMK A01 T01670105  RH  067%=      5-min Rain = 0
KTH1 100022Z 20006KT 17/11 A3009 RMK A01 T01690105  RH  066%=      5-min Rain = 0
KTH1 100023Z 20006KT 17/10 A3009 RMK A01 T01710104  RH  065%=      5-min Rain = 0
KTH1 100024Z 20006KT 17/10 A3009 RMK A01 T01720104  RH  064%=      5-min Rain = 0
KTH1 100025Z 20005KT 17/10 A3009 RMK A01 T01730104  RH  064%=      5-min Rain = 0
KTH1 100026Z 20005KT 17/11 A3009 RMK A01 T01710105  RH  065%=      5-min Rain = 0
KTH1 100027Z 20005KT 17/10 A3009 RMK A01 T01670104  RH  067%=      5-min Rain = 0
KTH1 100028Z 20005KT 16/10 A3009 RMK A01 T01630104  RH  068%=      5-min Rain = 0
KTH1 100029Z 20004KT 16/10 A3009 RMK A01 T01610104  RH  069%=      5-min Rain = 0
KTH1 100030Z 21004KT 16/10 A3009 RMK A01 T01580103  RH  070%=      5-min Rain = 0
KTH1 100031Z 21004KT 16/10 A3009 RMK A01 T01550103  RH  071%=      5-min Rain = 0
KTH1 100032Z 22003KT 15/10 A3009 RMK A01 T01530103  RH  072%=      5-min Rain = 0
KTH1 100033Z 23003KT 15/10 A3009 RMK A01 T01520103  RH  073%=      5-min Rain = 0
KTH1 100034Z 23004KT 15/10 A3009 RMK A01 T01510104  RH  073%=      5-min Rain = 0
KTH1 100035Z 23004KT 15/11 A3009 RMK A01 T01510105  RH  074%=      5-min Rain = 0
KTH1 100036Z 23004KT 15/10 A3009 RMK A01 T01500104  RH  074%=      5-min Rain = 0
KTH1 100037Z 22004KT 15/11 A3009 RMK A01 T01510105  RH  074%=      5-min Rain = 0
KTH1 100038Z 22004KT 15/11 A3009 RMK A01 T01510105  RH  074%=      5-min Rain = 0
KTH1 100039Z 22004KT 15/11 A3009 RMK A01 T01510105  RH  074%=      5-min Rain = 0
KTH1 100040Z 22004KT 15/11 A3009 RMK A01 T01510105  RH  074%=      5-min Rain = 0
KTH1 100041Z 22004KT 15/11 A3009 RMK A01 T01510105  RH  074%=      5-min Rain = 0
KTH1 100042Z 22004KT 15/11 A3009 RMK A01 T01510105  RH  074%=      5-min Rain = 0
KTH1 100043Z 22004KT 15/11 A3009 RMK A01 T01510105  RH  074%=      5-min Rain = 0
KTH1 100044Z 22004KT 15/10 A3009 RMK A01 T01500104  RH  074%=      5-min Rain = 0
KTH1 100045Z 22004KT 15/10 A3009 RMK A01 T01500103  RH  074%=      5-min Rain = 0
KTH1 100046Z 22005KT 15/10 A301 RMK A01 T01490103  RH  074%=      5-min Rain = 0
KTH1 100047Z 22004KT 15/10 A301 RMK A01 T01480103  RH  074%=      5-min Rain = 0
KTH1 100048Z 22004KT 15/10 A301 RMK A01 T01470103  RH  075%=      5-min Rain = 0
KTH1 100049Z 22004KT 15/10 A301 RMK A01 T01470103  RH  075%=      5-min Rain = 0
KTH1 100050Z 22004KT 15/10 A301 RMK A01 T01450103  RH  075%=      5-min Rain = 0
KTH1 100051Z 22004KT 14/10 A301 RMK A01 T01440102  RH  076%=      5-min Rain = 0
KTH1 100052Z 23004KT 14/10 A301 RMK A01 T01430101  RH  076%=      5-min Rain = 0
KTH1 100053Z 23004KT 14/10 A301 RMK A01 T01420101  RH  076%=      5-min Rain = 0
KTH1 100054Z 22005KT 14/10 A301 RMK A01 T01400101  RH  077%=      5-min Rain = 0
KTH1 100055Z 22005KT 14/10 A301 RMK A01 T01400101  RH  078%=      5-min Rain = 0
KTH1 100056Z 22005KT 14/10 A301 RMK A01 T01400101  RH  078%=      5-min Rain = 0
KTH1 100057Z 22005KT 14/10 A301 RMK A01 T01400101  RH  077%=      5-min Rain = 0
KTH1 100058Z 22005KT 14/10 A301 RMK A01 T01400101  RH  077%=      5-min Rain = 0
KTH1 100059Z 22005KT 14/10 A301 RMK A01 T01400100  RH  077%=      5-min Rain = 0
KTH1 100100Z 22005KT 14/10 A301 RMK A01 T01400100  RH  077%=      5-min Rain = 0
KTH1 100101Z 22004KT 14/10 A301 RMK A01 T01400101  RH  077%=      5-min Rain = 0
KTH1 100102Z 22004KT 14/10 A301 RMK A01 T01400101  RH  077%=      5-min Rain = 0
KTH1 100103Z 22004KT 14/10 A301 RMK A01 T01400101  RH  077%=      5-min Rain = 0
KTH1 100104Z 22004KT 14/10 A301 RMK A01 T01400101  RH  077%=      5-min Rain = 0
KTH1 100105Z 22004KT 14/10 A301 RMK A01 T01390101  RH  078%=      5-min Rain = 0
KTH1 100106Z 22004KT 14/10 A301 RMK A01 T01380100  RH  078%=      5-min Rain = 0
KTH1 100107Z 22004KT 14/10 A301 RMK A01 T01380100  RH  078%=      5-min Rain = 0
KTH1 100108Z 23004KT 14/10 A301 RMK A01 T01370100  RH  078%=      5-min Rain = 0
KTH1 100109Z 22004KT 14/10 A301 RMK A01 T01360099  RH  078%=      5-min Rain = 0
KTH1 100110Z 23004KT 14/10 A301 RMK A01 T01360099  RH  078%=      5-min Rain = 0
KTH1 100116Z 23004KT 13/10 A301 RMK A01 T01340099  RH  079%=      5-min Rain = 0
KTH1 100117Z 23005KT 14/10 A301 RMK A01 T01350100  RH  079%=      5-min Rain = 0
KTH1 100118Z 23004KT 14/10 A301 RMK A01 T01350099  RH  079%=      5-min Rain = 0
KTH1 100119Z 23005KT 14/10 A301 RMK A01 T01350099  RH  079%=      5-min Rain = 0
KTH1 100120Z 24004KT 13/10 A301 RMK A01 T01340100  RH  080%=      5-min Rain = 0
KTH1 100121Z 24004KT 13/10 A301 RMK A01 T01340099  RH  080%=      5-min Rain = 0
KTH1 100122Z 24005KT 13/10 A301 RMK A01 T01330099  RH  080%=      5-min Rain = 0
KTH1 100123Z 23004KT 13/10 A301 RMK A01 T01320099  RH  080%=      5-min Rain = 0
KTH1 100124Z 23005KT 13/10 A301 RMK A01 T01320100  RH  081%=      5-min Rain = 0
KTH1 100125Z 23004KT 13/10 A301 RMK A01 T01310099  RH  081%=      5-min Rain = 0
KTH1 100126Z 23005KT 13/10 A301 RMK A01 T01310099  RH  081%=      5-min Rain = 0
KTH1 100127Z 23005KT 13/10 A301 RMK A01 T01310099  RH  081%=      5-min Rain = 0
KTH1 100128Z 23005KT 13/10 A301 RMK A01 T01300099  RH  081%=      5-min Rain = 0
KTH1 100129Z 23004KT 13/10 A301 RMK A01 T01300099  RH  081%=      5-min Rain = 0
KTH1 100130Z 23004KT 13/10 A301 RMK A01 T01300098  RH  081%=      5-min Rain = 0
KTH1 100131Z 23004KT 13/10 A301 RMK A01 T01290098  RH  081%=      5-min Rain = 0
KTH1 100132Z 23004KT 13/10 A301 RMK A01 T01290097  RH  081%=      5-min Rain = 0
KTH1 100133Z 23004KT 13/10 A301 RMK A01 T01290097  RH  081%=      5-min Rain = 0
KTH1 100134Z 23004KT 13/10 A301 RMK A01 T01290097  RH  081%=      5-min Rain = 0
KTH1 100135Z 23004KT 13/10 A301 RMK A01 T01290096  RH  081%=      5-min Rain = 0
KTH1 100136Z 23004KT 13/10 A301 RMK A01 T01290096  RH  081%=      5-min Rain = 0
KTH1 100137Z 23005KT 13/10 A301 RMK A01 T01290097  RH  081%=      5-min Rain = 0
KTH1 100138Z 23005KT 13/10 A301 RMK A01 T01290099  RH  082%=      5-min Rain = 0
KTH1 100139Z 23005KT 13/10 A301 RMK A01 T01290099  RH  082%=      5-min Rain = 0
KTH1 100140Z 23005KT 13/10 A301 RMK A01 T01290099  RH  082%=      5-min Rain = 0
KTH1 100141Z 23005KT 13/10 A301 RMK A01 T01280099  RH  082%=      5-min Rain = 0
KTH1 100142Z 23005KT 13/10 A301 RMK A01 T01280099  RH  083%=      5-min Rain = 0
KTH1 100143Z 23005KT 13/10 A301 RMK A01 T01270098  RH  083%=      5-min Rain = 0
KTH1 100144Z 23005KT 13/10 A301 RMK A01 T01260098  RH  083%=      5-min Rain = 0
KTH1 100145Z 23005KT 13/10 A301 RMK A01 T01250098  RH  083%=      5-min Rain = 0
KTH1 100146Z 22005KT 13/10 A301 RMK A01 T01250097  RH  084%=      5-min Rain = 0
KTH1 100147Z 22005KT 12/10 A301 RMK A01 T01240097  RH  084%=      5-min Rain = 0
KTH1 100148Z 22005KT 12/10 A301 RMK A01 T01230096  RH  084%=      5-min Rain = 0
KTH1 100149Z 22005KT 12/10 A301 RMK A01 T01220095  RH  084%=      5-min Rain = 0
KTH1 100150Z 22005KT 12/09 A301 RMK A01 T01210094  RH  084%=      5-min Rain = 0
KTH1 100151Z 22005KT 12/09 A301 RMK A01 T01210094  RH  084%=      5-min Rain = 0
KTH1 100152Z 22005KT 12/09 A301 RMK A01 T01200094  RH  084%=      5-min Rain = 0
KTH1 100153Z 22005KT 12/09 A301 RMK A01 T01200093  RH  084%=      5-min Rain = 0
KTH1 100154Z 22005KT 12/09 A301 RMK A01 T01190093  RH  084%=      5-min Rain = 0
KTH1 100155Z 22005KT 12/09 A301 RMK A01 T01180092  RH  084%=      5-min Rain = 0
KTH1 100156Z 22005KT 12/09 A301 RMK A01 T01180092  RH  084%=      5-min Rain = 0
KTH1 100157Z 22005KT 12/09 A301 RMK A01 T01170092  RH  084%=      5-min Rain = 0
KTH1 100158Z 22005KT 12/09 A301 RMK A01 T01170092  RH  085%=      5-min Rain = 0
KTH1 100159Z 22004KT 12/09 A301 RMK A01 T01160092  RH  085%=      5-min Rain = 0
KTH1 100200Z 22004KT 12/09 A301 RMK A01 T01150091  RH  085%=      5-min Rain = 0
KTH1 100201Z 22004KT 11/09 A301 RMK A01 T01140091  RH  086%=      5-min Rain = 0
KTH1 100202Z 22004KT 11/09 A301 RMK A01 T01140092  RH  086%=      5-min Rain = 0
KTH1 100203Z 22004KT 11/09 A301 RMK A01 T01140092  RH  086%=      5-min Rain = 0
KTH1 100204Z 22004KT 11/09 A301 RMK A01 T01140092  RH  086%=      5-min Rain = 0
KTH1 100205Z 22004KT 11/09 A301 RMK A01 T01130092  RH  087%=      5-min Rain = 0
KTH1 100206Z 22005KT 11/09 A301 RMK A01 T01130092  RH  087%=      5-min Rain = 0
KTH1 100207Z 22004KT 11/09 A301 RMK A01 T01140092  RH  087%=      5-min Rain = 0
KTH1 100208Z 22005KT 11/09 A301 RMK A01 T01130092  RH  087%=      5-min Rain = 0
KTH1 100209Z 22004KT 11/09 A301 RMK A01 T01130093  RH  087%=      5-min Rain = 0
KTH1 100210Z 22005KT 11/09 A301 RMK A01 T01130092  RH  087%=      5-min Rain = 0
KTH1 100211Z 23005KT 11/09 A301 RMK A01 T01130092  RH  087%=      5-min Rain = 0
KTH1 100212Z 23005KT 11/09 A301 RMK A01 T01130092  RH  087%=      5-min Rain = 0
KTH1 100213Z 22005KT 11/09 A301 RMK A01 T01140092  RH  087%=      5-min Rain = 0
KTH1 100214Z 22005KT 11/09 A301 RMK A01 T01130092  RH  087%=      5-min Rain = 0
KTH1 100215Z 22004KT 11/09 A301 RMK A01 T01140093  RH  087%=      5-min Rain = 0
KTH1 100216Z 22004KT 12/09 A301 RMK A01 T01150093  RH  087%=      5-min Rain = 0
KTH1 100217Z 21004KT 12/09 A301 RMK A01 T01150093  RH  086%=      5-min Rain = 0
KTH1 100218Z 21004KT 12/09 A301 RMK A01 T01150093  RH  086%=      5-min Rain = 0
KTH1 100219Z 21004KT 12/09 A301 RMK A01 T01150093  RH  086%=      5-min Rain = 0
KTH1 100220Z 20005KT 12/09 A301 RMK A01 T01150092  RH  086%=      5-min Rain = 0
KTH1 100221Z 21005KT 12/09 A301 RMK A01 T01150093  RH  086%=      5-min Rain = 0
KTH1 100222Z 21005KT 12/09 A301 RMK A01 T01160093  RH  086%=      5-min Rain = 0
KTH1 100223Z 20005KT 12/09 A301 RMK A01 T01160093  RH  086%=      5-min Rain = 0
KTH1 100224Z 20005KT 12/09 A301 RMK A01 T01150092  RH  086%=      5-min Rain = 0
KTH1 100225Z 20005KT 12/09 A301 RMK A01 T01150092  RH  086%=      5-min Rain = 0
KTH1 100226Z 20006KT 12/09 A301 RMK A01 T01150093  RH  087%=      5-min Rain = 0
KTH1 100227Z 21005KT 12/10 A301 RMK A01 T01170097  RH  087%=      5-min Rain = 0
KTH1 100228Z 20005KT 12/09 A301 RMK A01 T01190094  RH  085%=      5-min Rain = 0
KTH1 100229Z 21004KT 12/09 A301 RMK A01 T01180093  RH  085%=      5-min Rain = 0
KTH1 100230Z 20005KT 12/09 A301 RMK A01 T01150092  RH  086%=      5-min Rain = 0
KTH1 100231Z 20004KT 11/09 A301 RMK A01 T01140093  RH  087%=      5-min Rain = 0
KTH1 100232Z 20004KT 11/09 A301 RMK A01 T01130093  RH  087%=      5-min Rain = 0
KTH1 100233Z 21004KT 11/09 A301 RMK A01 T01120092  RH  088%=      5-min Rain = 0
KTH1 100234Z 21004KT 11/09 A301 RMK A01 T01100091  RH  088%=      5-min Rain = 0
KTH1 100235Z 21005KT 11/09 A301 RMK A01 T01090091  RH  089%=      5-min Rain = 0
KTH1 100236Z 20005KT 11/09 A301 RMK A01 T01100092  RH  089%=      5-min Rain = 0
KTH1 100237Z 20006KT 11/09 A301 RMK A01 T01110093  RH  089%=      5-min Rain = 0
KTH1 100238Z 20006KT 11/09 A301 RMK A01 T01110094  RH  089%=      5-min Rain = 0
KTH1 100239Z 20006KT 11/10 A301 RMK A01 T01140097  RH  089%=      5-min Rain = 0
KTH1 100240Z 20005KT 12/10 A301 RMK A01 T01190101  RH  089%=      5-min Rain = 0
KTH1 100241Z 21005KT 12/10 A301 RMK A01 T01230099  RH  085%=      5-min Rain = 0
KTH1 100242Z 20006KT 12/10 A301 RMK A01 T01230098  RH  085%=      5-min Rain = 0
KTH1 100243Z 20006KT 12/10 A301 RMK A01 T01220098  RH  085%=      5-min Rain = 0
KTH1 100244Z 21006KT 12/10 A301 RMK A01 T01230100  RH  086%=      5-min Rain = 0
KTH1 100245Z 21005KT 13/10 A301 RMK A01 T01260100  RH  085%=      5-min Rain = 0
KTH1 100246Z 20006KT 13/10 A301 RMK A01 T01270100  RH  084%=      5-min Rain = 0
KTH1 100247Z 20006KT 13/10 A301 RMK A01 T01270099  RH  083%=      5-min Rain = 0
KTH1 100248Z 20006KT 13/10 A301 RMK A01 T01250099  RH  084%=      5-min Rain = 0
KTH1 100249Z 20006KT 13/10 A301 RMK A01 T01250099  RH  084%=      5-min Rain = 0
KTH1 100250Z 21006KT 13/10 A301 RMK A01 T01250099  RH  084%=      5-min Rain = 0
KTH1 100251Z 21005KT 13/10 A301 RMK A01 T01260099  RH  084%=      5-min Rain = 0
KTH1 100252Z 21005KT 13/10 A301 RMK A01 T01250099  RH  084%=      5-min Rain = 0
KTH1 100253Z 21005KT 12/10 A301 RMK A01 T01240098  RH  084%=      5-min Rain = 0
KTH1 100254Z 21004KT 12/10 A301 RMK A01 T01220097  RH  085%=      5-min Rain = 0
KTH1 100255Z 21004KT 12/10 A301 RMK A01 T01210097  RH  085%=      5-min Rain = 0
KTH1 100256Z 21005KT 12/10 A301 RMK A01 T01200097  RH  086%=      5-min Rain = 0
KTH1 100257Z 21005KT 12/10 A301 RMK A01 T01200098  RH  086%=      5-min Rain = 0
KTH1 100258Z 21005KT 12/10 A301 RMK A01 T01210098  RH  086%=      5-min Rain = 0
KTH1 100259Z 21005KT 12/10 A301 RMK A01 T01210099  RH  086%=      5-min Rain = 0
KTH1 100300Z 21004KT 12/10 A301 RMK A01 T01220099  RH  086%=      5-min Rain = 0
KTH1 100301Z 20005KT 12/10 A301 RMK A01 T01220098  RH  085%=      5-min Rain = 0
KTH1 100302Z 20005KT 12/10 A301 RMK A01 T01220098  RH  085%=      5-min Rain = 0
KTH1 100303Z 20006KT 12/10 A301 RMK A01 T01220099  RH  086%=      5-min Rain = 0
KTH1 100304Z 21005KT 12/10 A301 RMK A01 T01240100  RH  085%=      5-min Rain = 0
KTH1 100305Z 20004KT 12/10 A301 RMK A01 T01240099  RH  085%=      5-min Rain = 0
KTH1 100306Z 20006KT 13/10 A301 RMK A01 T01250100  RH  085%=      5-min Rain = 0
KTH1 100307Z 20005KT 13/10 A301 RMK A01 T01270102  RH  085%=      5-min Rain = 0
KTH1 100308Z 21007KT 13/10 A301 RMK A01 T01300103  RH  084%=      5-min Rain = 0
KTH1 100309Z 21007KT 13/10 A301 RMK A01 T01320103  RH  082%=      5-min Rain = 0
KTH1 100310Z 20007KT 13/11 A301 RMK A01 T01340105  RH  082%=      5-min Rain = 0
KTH1 100311Z 20006KT 14/10 A301 RMK A01 T01360104  RH  081%=      5-min Rain = 0
KTH1 100312Z 20006KT 14/10 A301 RMK A01 T01360103  RH  080%=      5-min Rain = 0
KTH1 100313Z 20005KT 13/10 A301 RMK A01 T01330101  RH  081%=      5-min Rain = 0
KTH1 100314Z 20007KT 13/10 A301 RMK A01 T01320102  RH  082%=      5-min Rain = 0
KTH1 100315Z 21006KT 13/10 A301 RMK A01 T01320104  RH  083%=      5-min Rain = 0
KTH1 100316Z 21007KT 13/10 A301 RMK A01 T01340104  RH  082%=      5-min Rain = 0
KTH1 100317Z 20007KT 14/11 A301 RMK A01 T01370107  RH  082%=      5-min Rain = 0
KTH1 100318Z 21007KT 14/11 A301 RMK A01 T01410109  RH  081%=      5-min Rain = 0
KTH1 100319Z 21006KT 15/11 A301 RMK A01 T01450109  RH  079%=      5-min Rain = 0
KTH1 100320Z 20006KT 15/11 A301 RMK A01 T01470108  RH  078%=      5-min Rain = 0
KTH1 100321Z 21005KT 15/11 A301 RMK A01 T01470108  RH  077%=      5-min Rain = 0
KTH1 100322Z 21006KT 15/11 A301 RMK A01 T01480108  RH  077%=      5-min Rain = 0
KTH1 100323Z 20006KT 15/11 A301 RMK A01 T01480108  RH  077%=      5-min Rain = 0
KTH1 100324Z 21006KT 15/11 A301 RMK A01 T01480108  RH  077%=      5-min Rain = 0
KTH1 100325Z 21006KT 15/11 A301 RMK A01 T01480108  RH  077%=      5-min Rain = 0
KTH1 100326Z 21007KT 15/11 A301 RMK A01 T01480108  RH  077%=      5-min Rain = 0
KTH1 100327Z 20006KT 15/11 A301 RMK A01 T01480108  RH  077%=      5-min Rain = 0
KTH1 100328Z 21008KT 15/11 A301 RMK A01 T01490108  RH  077%=      5-min Rain = 0
KTH1 100329Z 21007KT 15/11 A301 RMK A01 T01480108  RH  077%=      5-min Rain = 0
KTH1 100330Z 21005KT 15/11 A301 RMK A01 T01480107  RH  077%=      5-min Rain = 0
KTH1 100331Z 21006KT 15/11 A301 RMK A01 T01460106  RH  077%=      5-min Rain = 0
KTH1 100332Z 21005KT 14/11 A301 RMK A01 T01430105  RH  078%=      5-min Rain = 0
KTH1 100333Z 21007KT 14/11 A301 RMK A01 T01410105  RH  079%=      5-min Rain = 0
KTH1 100334Z 21007KT 14/11 A301 RMK A01 T01410105  RH  079%=      5-min Rain = 0
KTH1 100335Z 21006KT 14/11 A301 RMK A01 T01410106  RH  079%=      5-min Rain = 0
KTH1 100336Z 21006KT 14/11 A301 RMK A01 T01420105  RH  079%=      5-min Rain = 0
KTH1 100337Z 21006KT 14/11 A301 RMK A01 T01420106  RH  079%=      5-min Rain = 0
KTH1 100338Z 21006KT 14/11 A301 RMK A01 T01410105  RH  079%=      5-min Rain = 0
KTH1 100339Z 21006KT 14/11 A301 RMK A01 T01410106  RH  079%=      5-min Rain = 0
KTH1 100340Z 21006KT 14/11 A301 RMK A01 T01410105  RH  079%=      5-min Rain = 0
KTH1 100341Z 21005KT 14/11 A301 RMK A01 T01410105  RH  079%=      5-min Rain = 0
KTH1 100342Z 22005KT 14/11 A301 RMK A01 T01410105  RH  079%=      5-min Rain = 0
KTH1 100343Z 22006KT 14/10 A301 RMK A01 T01390104  RH  080%=      5-min Rain = 0
KTH1 100344Z 21005KT 14/10 A301 RMK A01 T01370104  RH  080%=      5-min Rain = 0
KTH1 100345Z 22006KT 14/10 A301 RMK A01 T01360104  RH  081%=      5-min Rain = 0
KTH1 100346Z 22005KT 13/10 A301 RMK A01 T01340102  RH  081%=      5-min Rain = 0
KTH1 100347Z 21005KT 13/10 A301 RMK A01 T01320102  RH  082%=      5-min Rain = 0
KTH1 100348Z 22006KT 13/10 A301 RMK A01 T01310103  RH  083%=      5-min Rain = 0
KTH1 100349Z 24005KT 13/10 A301 RMK A01 T01300102  RH  083%=      5-min Rain = 0
KTH1 100350Z 24005KT 13/10 A301 RMK A01 T01280101  RH  084%=      5-min Rain = 0
KTH1 100351Z 24005KT 13/10 A301 RMK A01 T01260101  RH  085%=      5-min Rain = 0
KTH1 100352Z 24005KT 12/10 A301 RMK A01 T01240101  RH  085%=      5-min Rain = 0
KTH1 100353Z 24005KT 12/10 A301 RMK A01 T01230100  RH  086%=      5-min Rain = 0
KTH1 100354Z 24006KT 12/10 A301 RMK A01 T01220100  RH  086%=      5-min Rain = 0
KTH1 100355Z 24006KT 12/10 A301 RMK A01 T01210100  RH  087%=      5-min Rain = 0
KTH1 100356Z 24006KT 12/10 A301 RMK A01 T01190099  RH  087%=      5-min Rain = 0
KTH1 100357Z 25006KT 12/10 A301 RMK A01 T01180099  RH  088%=      5-min Rain = 0
KTH1 100358Z 24006KT 12/10 A301 RMK A01 T01170098  RH  088%=      5-min Rain = 0
KTH1 100359Z 24006KT 12/10 A301 RMK A01 T01160098  RH  089%=      5-min Rain = 0
KTH1 100400Z 23006KT 12/10 A301 RMK A01 T01150097  RH  089%=      5-min Rain = 0
KTH1 100401Z 24006KT 11/10 A301 RMK A01 T01140097  RH  089%=      5-min Rain = 0
KTH1 100402Z 24006KT 11/10 A301 RMK A01 T01130097  RH  090%=      5-min Rain = 0
KTH1 100403Z 24006KT 11/10 A301 RMK A01 T01130096  RH  090%=      5-min Rain = 0
KTH1 100404Z 24006KT 11/10 A301 RMK A01 T01120096  RH  090%=      5-min Rain = 0
KTH1 100405Z 24006KT 11/10 A301 RMK A01 T01110096  RH  090%=      5-min Rain = 0
KTH1 100406Z 24006KT 11/10 A301 RMK A01 T01110096  RH  091%=      5-min Rain = 0
KTH1 100407Z 23006KT 11/10 A301 RMK A01 T01100096  RH  091%=      5-min Rain = 0
KTH1 100408Z 23006KT 11/10 A301 RMK A01 T01100095  RH  091%=      5-min Rain = 0
KTH1 100409Z 23006KT 11/10 A301 RMK A01 T01100095  RH  091%=      5-min Rain = 0
KTH1 100410Z 24005KT 11/10 A301 RMK A01 T01100095  RH  091%=      5-min Rain = 0
KTH1 100411Z 23006KT 11/10 A301 RMK A01 T01100095  RH  091%=      5-min Rain = 0
KTH1 100412Z 23006KT 11/10 A301 RMK A01 T01100095  RH  091%=      5-min Rain = 0
KTH1 100413Z 23006KT 11/10 A301 RMK A01 T01100095  RH  091%=      5-min Rain = 0
KTH1 100414Z 24005KT 11/10 A301 RMK A01 T01100095  RH  091%=      5-min Rain = 0
KTH1 100415Z 24005KT 11/10 A301 RMK A01 T01100095  RH  091%=      5-min Rain = 0
KTH1 100416Z 24005KT 11/10 A301 RMK A01 T01090095  RH  091%=      5-min Rain = 0
KTH1 100417Z 24005KT 11/09 A301 RMK A01 T01090094  RH  091%=      5-min Rain = 0
KTH1 100418Z 23006KT 11/09 A301 RMK A01 T01090094  RH  091%=      5-min Rain = 0
KTH1 100419Z 23006KT 11/09 A301 RMK A01 T01080094  RH  091%=      5-min Rain = 0
KTH1 100420Z 23005KT 11/10 A301 RMK A01 T01080095  RH  091%=      5-min Rain = 0
KTH1 100421Z 24005KT 11/10 A301 RMK A01 T01080095  RH  092%=      5-min Rain = 0
KTH1 100422Z 23005KT 11/10 A301 RMK A01 T01070095  RH  092%=      5-min Rain = 0
KTH1 100423Z 23005KT 11/10 A301 RMK A01 T01070095  RH  092%=      5-min Rain = 0
KTH1 100424Z 23005KT 11/10 A301 RMK A01 T01070095  RH  092%=      5-min Rain = 0
KTH1 100425Z 23005KT 11/09 A301 RMK A01 T01060094  RH  092%=      5-min Rain = 0
KTH1 100426Z 23005KT 11/09 A301 RMK A01 T01060094  RH  092%=      5-min Rain = 0
KTH1 100427Z 23005KT 11/09 A301 RMK A01 T01050094  RH  093%=      5-min Rain = 0
KTH1 100428Z 23005KT 11/09 A301 RMK A01 T01060094  RH  093%=      5-min Rain = 0
KTH1 100429Z 23005KT 11/09 A301 RMK A01 T01050094  RH  093%=      5-min Rain = 0
KTH1 100430Z 23005KT 11/09 A301 RMK A01 T01050094  RH  093%=      5-min Rain = 0
KTH1 100431Z 22005KT 11/10 A301 RMK A01 T01050095  RH  093%=      5-min Rain = 0
KTH1 100432Z 22005KT 11/09 A301 RMK A01 T01050094  RH  093%=      5-min Rain = 0
KTH1 100433Z 22005KT 11/09 A301 RMK A01 T01050094  RH  093%=      5-min Rain = 0
KTH1 100434Z 23005KT 11/09 A301 RMK A01 T01050094  RH  093%=      5-min Rain = 0
KTH1 100435Z 23005KT 11/09 A301 RMK A01 T01050094  RH  093%=      5-min Rain = 0
KTH1 100436Z 23005KT 10/09 A301 RMK A01 T01040094  RH  093%=      5-min Rain = 0
KTH1 100437Z 23005KT 10/09 A301 RMK A01 T01040094  RH  094%=      5-min Rain = 0
KTH1 100438Z 24005KT 10/09 A301 RMK A01 T01040094  RH  094%=      5-min Rain = 0
KTH1 100439Z 24005KT 10/09 A301 RMK A01 T01030094  RH  094%=      5-min Rain = 0
KTH1 100440Z 24005KT 10/10 A301 RMK A01 T01030095  RH  094%=      5-min Rain = 0
KTH1 100441Z 24005KT 10/09 A301 RMK A01 T01030094  RH  095%=      5-min Rain = 0
KTH1 100442Z 24005KT 10/10 A301 RMK A01 T01030095  RH  095%=      5-min Rain = 0
KTH1 100443Z 24005KT 10/10 A301 RMK A01 T01030095  RH  095%=      5-min Rain = 0
KTH1 100444Z 24005KT 10/10 A301 RMK A01 T01030095  RH  095%=      5-min Rain = 0
KTH1 100445Z 24005KT 10/10 A301 RMK A01 T01030095  RH  095%=      5-min Rain = 0
KTH1 100446Z 23005KT 10/10 A301 RMK A01 T01030095  RH  095%=      5-min Rain = 0
KTH1 100447Z 23006KT 10/09 A301 RMK A01 T01030094  RH  094%=      5-min Rain = 0
KTH1 100448Z 23006KT 10/10 A301 RMK A01 T01030095  RH  094%=      5-min Rain = 0
KTH1 100449Z 23006KT 10/09 A301 RMK A01 T01030094  RH  094%=      5-min Rain = 0
KTH1 100450Z 23006KT 10/09 A301 RMK A01 T01030094  RH  094%=      5-min Rain = 0
KTH1 100451Z 23006KT 10/10 A301 RMK A01 T01030095  RH  094%=      5-min Rain = 0
KTH1 100452Z 23006KT 10/10 A301 RMK A01 T01030095  RH  094%=      5-min Rain = 0
KTH1 100453Z 23006KT 10/10 A301 RMK A01 T01040095  RH  094%=      5-min Rain = 0
KTH1 100454Z 23006KT 10/10 A301 RMK A01 T01040095  RH  094%=      5-min Rain = 0
KTH1 100455Z 23006KT 11/10 A301 RMK A01 T01050095  RH  094%=      5-min Rain = 0
KTH1 100456Z 23006KT 11/10 A301 RMK A01 T01050095  RH  094%=      5-min Rain = 0
KTH1 100457Z 23005KT 11/10 A301 RMK A01 T01050095  RH  093%=      5-min Rain = 0
KTH1 100458Z 23005KT 11/10 A301 RMK A01 T01050095  RH  093%=      5-min Rain = 0
KTH1 100459Z 23005KT 11/10 A301 RMK A01 T01050095  RH  093%=      5-min Rain = 0
KTH1 100500Z 23006KT 11/09 A301 RMK A01 T01050094  RH  093%=      5-min Rain = 0
KTH1 100501Z 23005KT 10/09 A301 RMK A01 T01040094  RH  093%=      5-min Rain = 0
KTH1 100502Z 23005KT 10/09 A301 RMK A01 T01040094  RH  093%=      5-min Rain = 0
KTH1 100503Z 23005KT 10/09 A301 RMK A01 T01030093  RH  094%=      5-min Rain = 0
KTH1 100504Z 23005KT 10/09 A301 RMK A01 T01030093  RH  094%=      5-min Rain = 0
KTH1 100505Z 24005KT 10/09 A301 RMK A01 T01030093  RH  094%=      5-min Rain = 0
KTH1 100506Z 24005KT 10/09 A301 RMK A01 T01020093  RH  094%=      5-min Rain = 0
KTH1 100507Z 24005KT 10/09 A301 RMK A01 T01020093  RH  094%=      5-min Rain = 0
KTH1 100508Z 24005KT 10/09 A301 RMK A01 T01010093  RH  094%=      5-min Rain = 0
KTH1 100509Z 24005KT 10/09 A3009 RMK A01 T01010093  RH  095%=      5-min Rain = 0
KTH1 100510Z 24005KT 10/09 A3009 RMK A01 T01010093  RH  095%=      5-min Rain = 0
KTH1 100511Z 24005KT 10/09 A3009 RMK A01 T01010093  RH  095%=      5-min Rain = 0
KTH1 100512Z 24006KT 10/09 A3009 RMK A01 T01010093  RH  095%=      5-min Rain = 0
KTH1 100513Z 25005KT 10/09 A3009 RMK A01 T01010093  RH  095%=      5-min Rain = 0
KTH1 100514Z 25005KT 10/09 A3009 RMK A01 T01000093  RH  095%=      5-min Rain = 0
KTH1 100515Z 24005KT 10/09 A3009 RMK A01 T01000093  RH  095%=      5-min Rain = 0
KTH1 100516Z 24006KT 10/09 A3009 RMK A01 T01000093  RH  095%=      5-min Rain = 0
KTH1 100517Z 24006KT 10/09 A3009 RMK A01 T01000093  RH  095%=      5-min Rain = 0
KTH1 100518Z 24006KT 10/09 A3009 RMK A01 T01000093  RH  095%=      5-min Rain = 0
KTH1 100519Z 24006KT 10/09 A3009 RMK A01 T01000093  RH  095%=      5-min Rain = 0
KTH1 100520Z 24006KT 10/09 A3009 RMK A01 T01000093  RH  095%=      5-min Rain = 0
KTH1 100521Z 24005KT 10/09 A3009 RMK A01 T01000093  RH  095%=      5-min Rain = 0
KTH1 100522Z 24005KT 10/09 A3009 RMK A01 T01000093  RH  095%=      5-min Rain = 0
KTH1 100523Z 24005KT 10/09 A3009 RMK A01 T01000093  RH  095%=      5-min Rain = 0
KTH1 100524Z 24005KT 10/09 A3009 RMK A01 T01000093  RH  095%=      5-min Rain = 0
KTH1 100525Z 24005KT 10/09 A3009 RMK A01 T01010093  RH  095%=      5-min Rain = 0
KTH1 100526Z 24005KT 10/09 A3009 RMK A01 T01010094  RH  095%=      5-min Rain = 0
KTH1 100527Z 24005KT 10/09 A3009 RMK A01 T01010094  RH  095%=      5-min Rain = 0
KTH1 100528Z 24005KT 10/10 A3009 RMK A01 T01020095  RH  095%=      5-min Rain = 0
KTH1 100529Z 24005KT 10/10 A3009 RMK A01 T01020095  RH  095%=      5-min Rain = 0
KTH1 100530Z 24006KT 10/10 A3009 RMK A01 T01030096  RH  095%=      5-min Rain = 0
KTH1 100531Z 24006KT 10/10 A3009 RMK A01 T01040096  RH  095%=      5-min Rain = 0
KTH1 100532Z 24005KT 11/10 A3009 RMK A01 T01050096  RH  095%=      5-min Rain = 0
KTH1 100533Z 24006KT 11/10 A3009 RMK A01 T01050096  RH  094%=      5-min Rain = 0
KTH1 100534Z 24005KT 11/10 A3009 RMK A01 T01060097  RH  094%=      5-min Rain = 0
KTH1 100535Z 24005KT 11/10 A3009 RMK A01 T01060097  RH  094%=      5-min Rain = 0
KTH1 100536Z 24005KT 11/10 A3009 RMK A01 T01070097  RH  094%=      5-min Rain = 0
KTH1 100537Z 24004KT 11/10 A3009 RMK A01 T01070098  RH  094%=      5-min Rain = 0
KTH1 100538Z 24005KT 11/10 A3009 RMK A01 T01070097  RH  093%=      5-min Rain = 0
KTH1 100539Z 24005KT 11/10 A3009 RMK A01 T01080097  RH  093%=      5-min Rain = 0
KTH1 100540Z 24004KT 11/10 A3009 RMK A01 T01080097  RH  093%=      5-min Rain = 0
KTH1 100541Z 24004KT 11/10 A3009 RMK A01 T01080097  RH  093%=      5-min Rain = 0
KTH1 100542Z 23004KT 11/10 A3009 RMK A01 T01080097  RH  093%=      5-min Rain = 0
KTH1 100543Z 23004KT 11/10 A3009 RMK A01 T01080097  RH  093%=      5-min Rain = 0
KTH1 100544Z 23004KT 11/10 A3009 RMK A01 T01080097  RH  093%=      5-min Rain = 0
KTH1 100545Z 23004KT 11/10 A3009 RMK A01 T01080097  RH  093%=      5-min Rain = 0
KTH1 100546Z 23004KT 11/10 A3009 RMK A01 T01080097  RH  093%=      5-min Rain = 0
KTH1 100547Z 23004KT 11/10 A3009 RMK A01 T01080098  RH  093%=      5-min Rain = 0
KTH1 100548Z 23004KT 11/10 A3009 RMK A01 T01080098  RH  093%=      5-min Rain = 0
KTH1 100549Z 23004KT 11/10 A3009 RMK A01 T01080098  RH  093%=      5-min Rain = 0
KTH1 100550Z 23004KT 11/10 A3009 RMK A01 T01090099  RH  093%=      5-min Rain = 0
KTH1 100551Z 23004KT 11/10 A3009 RMK A01 T01090098  RH  093%=      5-min Rain = 0
KTH1 100552Z 23004KT 11/10 A3009 RMK A01 T01090098  RH  093%=      5-min Rain = 0
KTH1 100553Z 23004KT 11/10 A3009 RMK A01 T01090098  RH  093%=      5-min Rain = 0
KTH1 100554Z 22004KT 11/10 A3009 RMK A01 T01090098  RH  093%=      5-min Rain = 0
KTH1 100555Z 23004KT 11/10 A3009 RMK A01 T01090098  RH  093%=      5-min Rain = 0
KTH1 100556Z 22004KT 11/10 A3009 RMK A01 T01090098  RH  093%=      5-min Rain = 0
KTH1 100557Z 22004KT 11/10 A3009 RMK A01 T01090099  RH  093%=      5-min Rain = 0
KTH1 100558Z 22004KT 11/10 A3009 RMK A01 T01090099  RH  093%=      5-min Rain = 0
KTH1 100559Z 22004KT 11/10 A3009 RMK A01 T01090099  RH  093%=      5-min Rain = 0

Page generated in 0.0704 seconds.